Time,TemperatureF,DewpointF,PressureIn,WindDirection,WindDirectionDegrees,WindSpeedMPH,WindSpeedGustMPH,Humidity,HourlyPrecipIn,Conditions,Clouds,dailyrainin,SoftwareType,DateUTC
2013-02-19 00:01:00,59.0,29.9,29.97,North,0,7.0,7.0,33,0.00,,,0.00,Wunderground v.1.15,2013-02-19 06:01:00,
2013-02-19 00:02:00,59.0,29.9,29.97,North,8,7.0,11.0,33,0.00,,,0.00,Wunderground v.1.15,2013-02-19 06:02:00,
2013-02-19 00:06:00,58.9,29.8,29.97,NE,37,8.0,11.0,33,0.00,,,0.00,Wunderground v.1.15,2013-02-19 06:06:00,
2013-02-19 00:07:00,58.9,29.8,29.97,NNE,28,8.0,11.0,33,0.00,,,0.00,Wunderground v.1.15,2013-02-19 06:07:00,
2013-02-19 00:08:00,58.7,29.6,29.97,North,0,8.0,11.0,33,0.00,,,0.00,Wunderground v.1.15,2013-02-19 06:08:00,
2013-02-19 00:10:00,58.7,30.4,29.97,NNE,16,8.0,12.0,34,0.00,,,0.00,Wunderground v.1.15,2013-02-19 06:10:00,
2013-02-19 00:13:00,58.6,30.3,29.97,NNE,23,8.0,8.0,34,0.00,,,0.00,Wunderground v.1.15,2013-02-19 06:13:00,
2013-02-19 00:14:00,58.6,30.3,29.97,NE,56,7.0,8.0,34,0.00,,,0.00,Wunderground v.1.15,2013-02-19 06:14:00,
2013-02-19 00:16:00,58.4,30.1,29.97,NNE,27,7.0,11.0,34,0.00,,,0.00,Wunderground v.1.15,2013-02-19 06:16:00,
2013-02-19 00:18:00,58.4,30.1,29.97,ENE,59,8.0,11.0,34,0.00,,,0.00,Wunderground v.1.15,2013-02-19 06:18:00,
2013-02-19 00:19:00,58.4,30.1,29.97,NNE,17,8.0,11.0,34,0.00,,,0.00,Wunderground v.1.15,2013-02-19 06:19:00,
2013-02-19 00:23:00,58.3,30.7,29.97,North,7,7.0,9.0,35,0.00,,,0.00,Wunderground v.1.15,2013-02-19 06:23:00,
2013-02-19 00:25:00,58.1,30.6,29.97,NNE,17,7.0,9.0,35,0.00,,,0.00,Wunderground v.1.15,2013-02-19 06:25:00,
2013-02-19 00:29:00,58.0,30.5,29.97,North,357,7.0,9.0,35,0.00,,,0.00,Wunderground v.1.15,2013-02-19 06:29:00,
2013-02-19 00:31:00,57.8,30.3,29.98,NE,40,6.0,7.0,35,0.00,,,0.00,Wunderground v.1.15,2013-02-19 06:31:00,
2013-02-19 00:32:00,57.8,30.3,29.98,North,0,6.0,7.0,35,0.00,,,0.00,Wunderground v.1.15,2013-02-19 06:32:00,
2013-02-19 00:34:00,57.8,30.3,29.98,North,0,6.0,13.0,35,0.00,,,0.00,Wunderground v.1.15,2013-02-19 06:34:00,
2013-02-19 00:35:00,57.8,31.0,29.98,North,0,7.0,13.0,36,0.00,,,0.00,Wunderground v.1.15,2013-02-19 06:35:00,
2013-02-19 00:37:00,57.6,30.8,29.98,NNE,28,7.0,13.0,36,0.00,,,0.00,Wunderground v.1.15,2013-02-19 06:37:00,
2013-02-19 00:38:00,57.6,30.8,29.98,ENE,66,7.0,13.0,36,0.00,,,0.00,Wunderground v.1.15,2013-02-19 06:38:00,
2013-02-19 00:42:00,57.5,30.7,29.98,NNW,347,7.0,7.0,36,0.00,,,0.00,Wunderground v.1.15,2013-02-19 06:42:00,
2013-02-19 00:43:00,57.5,30.7,29.98,North,356,7.0,10.0,36,0.00,,,0.00,Wunderground v.1.15,2013-02-19 06:43:00,
2013-02-19 00:44:00,57.5,30.7,29.98,NNE,14,7.0,10.0,36,0.00,,,0.00,Wunderground v.1.15,2013-02-19 06:44:00,
2013-02-19 00:47:00,57.3,30.5,29.98,NE,45,6.0,10.0,36,0.00,,,0.00,Wunderground v.1.15,2013-02-19 06:47:00,
2013-02-19 00:51:00,57.2,31.1,29.98,NNE,27,6.0,10.0,37,0.00,,,0.00,Wunderground v.1.15,2013-02-19 06:51:00,
2013-02-19 00:53:00,57.2,31.1,29.98,NNE,27,7.0,9.0,37,0.00,,,0.00,Wunderground v.1.15,2013-02-19 06:53:00,
2013-02-19 00:55:00,57.0,31.0,29.98,NNE,23,7.0,14.0,37,0.00,,,0.00,Wunderground v.1.15,2013-02-19 06:55:00,
2013-02-19 00:57:00,57.0,31.0,29.98,North,8,7.0,14.0,37,0.00,,,0.00,Wunderground v.1.15,2013-02-19 06:57:00,
2013-02-19 01:01:00,56.9,30.9,29.97,North,8,8.0,8.0,37,0.00,,,0.00,Wunderground v.1.15,2013-02-19 07:01:00,
2013-02-19 01:03:00,56.9,30.9,29.97,North,7,8.0,8.0,37,0.00,,,0.00,Wunderground v.1.15,2013-02-19 07:03:00,
2013-02-19 01:04:00,56.9,31.5,29.97,NNE,17,8.0,8.0,38,0.00,,,0.00,Wunderground v.1.15,2013-02-19 07:04:00,
2013-02-19 01:05:00,56.9,31.5,29.97,North,0,8.0,8.0,38,0.00,,,0.00,Wunderground v.1.15,2013-02-19 07:05:00,
2013-02-19 01:10:00,56.6,31.3,29.97,NE,52,6.0,11.0,38,0.00,,,0.00,Wunderground v.1.15,2013-02-19 07:10:00,
2013-02-19 01:12:00,56.6,31.3,29.97,NE,41,6.0,11.0,38,0.00,,,0.00,Wunderground v.1.15,2013-02-19 07:12:00,
2013-02-19 01:14:00,56.6,31.3,29.97,North,8,6.0,11.0,38,0.00,,,0.00,Wunderground v.1.15,2013-02-19 07:14:00,
2013-02-19 01:16:00,56.5,31.2,29.98,ENE,58,6.0,11.0,38,0.00,,,0.00,Wunderground v.1.15,2013-02-19 07:16:00,
2013-02-19 01:19:00,56.5,31.2,29.98,North,0,6.0,11.0,38,0.00,,,0.00,Wunderground v.1.15,2013-02-19 07:19:00,
2013-02-19 01:22:00,56.3,31.0,29.98,NNE,31,6.0,8.0,38,0.00,,,0.00,Wunderground v.1.15,2013-02-19 07:22:00,
2013-02-19 01:23:00,56.3,31.0,29.98,North,6,6.0,8.0,38,0.00,,,0.00,Wunderground v.1.15,2013-02-19 07:23:00,
2013-02-19 01:24:00,56.3,31.0,29.98,NE,34,6.0,8.0,38,0.00,,,0.00,Wunderground v.1.15,2013-02-19 07:24:00,
2013-02-19 01:29:00,56.2,31.5,29.98,NE,52,6.0,8.0,39,0.00,,,0.00,Wunderground v.1.15,2013-02-19 07:29:00,
2013-02-19 01:30:00,56.0,31.4,29.99,NNE,25,6.0,6.0,39,0.00,,,0.00,Wunderground v.1.15,2013-02-19 07:30:00,
2013-02-19 01:32:00,56.0,31.4,29.99,North,10,6.0,6.0,39,0.00,,,0.00,Wunderground v.1.15,2013-02-19 07:32:00,
2013-02-19 01:34:00,56.0,31.4,29.99,NE,56,6.0,8.0,39,0.00,,,0.00,Wunderground v.1.15,2013-02-19 07:34:00,
2013-02-19 01:35:00,55.9,31.3,29.99,NE,49,6.0,8.0,39,0.00,,,0.00,Wunderground v.1.15,2013-02-19 07:35:00,
2013-02-19 01:37:00,55.9,31.3,29.99,NE,37,6.0,8.0,39,0.00,,,0.00,Wunderground v.1.15,2013-02-19 07:37:00,
2013-02-19 01:39:00,55.7,31.1,29.99,NE,45,5.0,8.0,39,0.00,,,0.00,Wunderground v.1.15,2013-02-19 07:39:00,
2013-02-19 01:42:00,55.7,31.7,29.99,NE,52,6.0,7.0,40,0.00,,,0.00,Wunderground v.1.15,2013-02-19 07:42:00,
2013-02-19 01:43:00,55.7,31.7,29.99,NNE,14,6.0,7.0,40,0.00,,,0.00,Wunderground v.1.15,2013-02-19 07:43:00,
2013-02-19 01:44:00,55.6,31.6,29.99,NE,54,6.0,8.0,40,0.00,,,0.00,Wunderground v.1.15,2013-02-19 07:44:00,
2013-02-19 01:47:00,55.6,31.6,30.00,NNE,21,6.0,8.0,40,0.00,,,0.00,Wunderground v.1.15,2013-02-19 07:47:00,
2013-02-19 01:48:00,55.6,31.6,30.00,NE,48,6.0,10.0,40,0.00,,,0.00,Wunderground v.1.15,2013-02-19 07:48:00,
2013-02-19 01:50:00,55.6,31.6,30.00,NNE,21,6.0,10.0,40,0.00,,,0.00,Wunderground v.1.15,2013-02-19 07:50:00,
2013-02-19 01:54:00,55.4,31.5,30.00,NNE,28,6.0,6.0,40,0.00,,,0.00,Wunderground v.1.15,2013-02-19 07:54:00,
2013-02-19 01:55:00,55.3,31.4,30.00,NNE,17,6.0,6.0,40,0.00,,,0.00,Wunderground v.1.15,2013-02-19 07:55:00,
2013-02-19 01:56:00,55.3,32.0,30.00,North,359,6.0,7.0,41,0.00,,,0.00,Wunderground v.1.15,2013-02-19 07:56:00,
2013-02-19 01:57:00,55.3,32.0,30.00,North,359,6.0,7.0,41,0.00,,,0.00,Wunderground v.1.15,2013-02-19 07:57:00,
2013-02-19 02:00:00,55.1,31.8,30.00,NE,56,5.0,8.0,41,0.00,,,0.00,Wunderground v.1.15,2013-02-19 08:00:00,
2013-02-19 02:02:00,55.0,31.7,30.00,North,0,5.0,8.0,41,0.00,,,0.00,Wunderground v.1.15,2013-02-19 08:02:00,
2013-02-19 02:05:00,55.0,31.7,30.00,North,10,5.0,11.0,41,0.00,,,0.00,Wunderground v.1.15,2013-02-19 08:05:00,
2013-02-19 02:08:00,54.8,31.5,30.00,NNE,20,6.0,11.0,41,0.00,,,0.00,Wunderground v.1.15,2013-02-19 08:08:00,
2013-02-19 02:09:00,54.8,31.5,30.00,NE,34,6.0,11.0,41,0.00,,,0.00,Wunderground v.1.15,2013-02-19 08:09:00,
2013-02-19 02:10:00,54.8,31.5,30.00,North,8,6.0,7.0,41,0.00,,,0.00,Wunderground v.1.15,2013-02-19 08:10:00,
2013-02-19 02:11:00,54.7,31.4,30.00,NE,35,6.0,13.0,41,0.00,,,0.00,Wunderground v.1.15,2013-02-19 08:11:00,
2013-02-19 02:14:00,54.7,31.4,30.00,NE,38,7.0,13.0,41,0.00,,,0.00,Wunderground v.1.15,2013-02-19 08:14:00,
2013-02-19 02:16:00,54.7,32.0,29.99,North,359,7.0,13.0,42,0.00,,,0.00,Wunderground v.1.15,2013-02-19 08:16:00,
2013-02-19 02:18:00,54.5,31.9,29.99,NNE,16,7.0,13.0,42,0.00,,,0.00,Wunderground v.1.15,2013-02-19 08:18:00,
2013-02-19 02:20:00,54.4,31.8,29.99,North,0,7.0,7.0,42,0.00,,,0.00,Wunderground v.1.15,2013-02-19 08:20:00,
2013-02-19 02:23:00,54.2,31.6,29.99,NNE,31,6.0,8.0,42,0.00,,,0.00,Wunderground v.1.15,2013-02-19 08:23:00,
2013-02-19 02:26:00,54.2,31.6,29.99,NE,38,6.0,8.0,42,0.00,,,0.00,Wunderground v.1.15,2013-02-19 08:26:00,
2013-02-19 02:30:00,54.1,32.1,29.99,North,0,6.0,7.0,43,0.00,,,0.00,Wunderground v.1.15,2013-02-19 08:30:00,
2013-02-19 02:31:00,53.9,31.9,30.00,North,0,6.0,7.0,43,0.00,,,0.00,Wunderground v.1.15,2013-02-19 08:31:00,
2013-02-19 02:35:00,53.9,31.9,30.00,ENE,66,5.0,7.0,43,0.00,,,0.00,Wunderground v.1.15,2013-02-19 08:35:00,
2013-02-19 02:36:00,53.8,31.8,30.00,NNE,28,4.0,7.0,43,0.00,,,0.00,Wunderground v.1.15,2013-02-19 08:36:00,
2013-02-19 02:39:00,53.6,32.2,30.00,NNE,14,4.0,7.0,44,0.00,,,0.00,Wunderground v.1.15,2013-02-19 08:39:00,
2013-02-19 02:40:00,53.6,32.2,30.00,NE,35,4.0,6.0,44,0.00,,,0.00,Wunderground v.1.15,2013-02-19 08:40:00,
2013-02-19 02:42:00,53.5,32.1,30.00,NE,49,4.0,6.0,44,0.00,,,0.00,Wunderground v.1.15,2013-02-19 08:42:00,
2013-02-19 02:46:00,53.3,31.9,30.01,ENE,58,4.0,6.0,44,0.00,,,0.00,Wunderground v.1.15,2013-02-19 08:46:00,
2013-02-19 02:47:00,53.3,31.9,30.01,ENE,59,4.0,6.0,44,0.00,,,0.00,Wunderground v.1.15,2013-02-19 08:47:00,
2013-02-19 02:51:00,53.1,32.3,30.01,ENE,59,2.0,3.0,45,0.00,,,0.00,Wunderground v.1.15,2013-02-19 08:51:00,
2013-02-19 02:52:00,53.1,32.3,30.01,ENE,59,2.0,3.0,45,0.00,,,0.00,Wunderground v.1.15,2013-02-19 08:52:00,
2013-02-19 02:54:00,53.1,32.3,30.01,ENE,59,2.0,3.0,45,0.00,,,0.00,Wunderground v.1.15,2013-02-19 08:54:00,
2013-02-19 02:55:00,52.9,32.1,30.01,ENE,59,2.0,3.0,45,0.00,,,0.00,Wunderground v.1.15,2013-02-19 08:55:00,
2013-02-19 02:57:00,52.8,32.0,30.01,ENE,59,1.0,3.0,45,0.00,,,0.00,Wunderground v.1.15,2013-02-19 08:57:00,
2013-02-19 02:59:00,52.8,32.0,30.01,ENE,59,1.0,3.0,45,0.00,,,0.00,Wunderground v.1.15,2013-02-19 08:59:00,
2013-02-19 03:02:00,52.5,32.3,30.03,ENE,59,1.0,3.0,46,0.00,,,0.00,Wunderground v.1.15,2013-02-19 09:02:00,
2013-02-19 03:05:00,52.3,32.1,30.03,ENE,59,1.0,3.0,46,0.00,,,0.00,Wunderground v.1.15,2013-02-19 09:05:00,
2013-02-19 03:08:00,52.2,32.0,30.03,ENE,59,1.0,3.0,46,0.00,,,0.00,Wunderground v.1.15,2013-02-19 09:08:00,
2013-02-19 03:10:00,52.0,31.8,30.03,ENE,59,1.0,1.0,46,0.00,,,0.00,Wunderground v.1.15,2013-02-19 09:10:00,
2013-02-19 03:13:00,51.9,32.3,30.03,ENE,59,1.0,2.0,47,0.00,,,0.00,Wunderground v.1.15,2013-02-19 09:13:00,
2013-02-19 03:16:00,51.7,32.1,30.03,ENE,59,1.0,2.0,47,0.00,,,0.00,Wunderground v.1.15,2013-02-19 09:16:00,
2013-02-19 03:17:00,51.7,32.1,30.03,ENE,59,1.0,2.0,47,0.00,,,0.00,Wunderground v.1.15,2013-02-19 09:17:00,
2013-02-19 03:21:00,51.4,32.3,30.03,ENE,59,1.0,2.0,48,0.00,,,0.00,Wunderground v.1.15,2013-02-19 09:21:00,
2013-02-19 03:22:00,51.3,32.3,30.03,ENE,59,1.0,2.0,48,0.00,,,0.00,Wunderground v.1.15,2013-02-19 09:22:00,
2013-02-19 03:25:00,51.1,32.1,30.03,ENE,59,1.0,2.0,48,0.00,,,0.00,Wunderground v.1.15,2013-02-19 09:25:00,
2013-02-19 03:26:00,51.1,32.1,30.03,ENE,59,1.0,2.0,48,0.00,,,0.00,Wunderground v.1.15,2013-02-19 09:26:00,
2013-02-19 03:31:00,50.8,31.8,30.04,ENE,59,2.0,2.0,48,0.00,,,0.00,Wunderground v.1.15,2013-02-19 09:31:00,
2013-02-19 03:32:00,50.8,32.3,30.04,NE,56,2.0,4.0,49,0.00,,,0.00,Wunderground v.1.15,2013-02-19 09:32:00,
2013-02-19 03:35:00,50.7,32.2,30.04,NE,54,2.0,4.0,49,0.00,,,0.00,Wunderground v.1.15,2013-02-19 09:35:00,
2013-02-19 03:36:00,50.7,32.2,30.04,NE,54,2.0,4.0,49,0.00,,,0.00,Wunderground v.1.15,2013-02-19 09:36:00,
2013-02-19 03:37:00,50.7,31.7,30.04,NE,54,2.0,4.0,48,0.00,,,0.00,Wunderground v.1.15,2013-02-19 09:37:00,
2013-02-19 03:40:00,50.5,32.0,30.04,NE,54,2.0,2.0,49,0.00,,,0.00,Wunderground v.1.15,2013-02-19 09:40:00,
2013-02-19 03:46:00,50.4,31.9,30.04,NE,54,1.0,2.0,49,0.00,,,0.00,Wunderground v.1.15,2013-02-19 09:46:00,
2013-02-19 03:48:00,50.4,31.9,30.04,NE,54,0.0,2.0,49,0.00,,,0.00,Wunderground v.1.15,2013-02-19 09:48:00,
2013-02-19 03:51:00,50.2,31.8,30.04,NE,54,0.0,1.0,49,0.00,,,0.00,Wunderground v.1.15,2013-02-19 09:51:00,
2013-02-19 03:56:00,50.1,31.7,30.04,NE,54,0.0,1.0,49,0.00,,,0.00,Wunderground v.1.15,2013-02-19 09:56:00,
2013-02-19 03:57:00,50.1,31.7,30.04,NE,54,0.0,1.0,49,0.00,,,0.00,Wunderground v.1.15,2013-02-19 09:57:00,
2013-02-19 04:01:00,49.9,31.5,30.05,NE,54,0.0,0.0,49,0.00,,,0.00,Wunderground v.1.15,2013-02-19 10:01:00,
2013-02-19 04:02:00,49.9,31.5,30.05,NE,54,0.0,0.0,49,0.00,,,0.00,Wunderground v.1.15,2013-02-19 10:02:00,
2013-02-19 04:07:00,49.8,31.9,30.05,NE,54,1.0,2.0,50,0.00,,,0.00,Wunderground v.1.15,2013-02-19 10:07:00,
2013-02-19 04:10:00,49.8,31.4,30.05,NE,54,1.0,2.0,49,0.00,,,0.00,Wunderground v.1.15,2013-02-19 10:10:00,
2013-02-19 04:15:00,49.6,31.2,30.05,NE,54,2.0,2.0,49,0.00,,,0.00,Wunderground v.1.15,2013-02-19 10:15:00,
2013-02-19 04:16:00,49.6,31.2,30.05,NE,54,2.0,2.0,49,0.00,,,0.00,Wunderground v.1.15,2013-02-19 10:16:00,
2013-02-19 04:17:00,49.5,31.6,30.05,NE,54,2.0,2.0,50,0.00,,,0.00,Wunderground v.1.15,2013-02-19 10:17:00,
2013-02-19 04:18:00,49.5,31.6,30.05,NE,54,1.0,2.0,50,0.00,,,0.00,Wunderground v.1.15,2013-02-19 10:18:00,
2013-02-19 04:21:00,49.4,31.5,30.05,NE,54,1.0,1.0,50,0.00,,,0.00,Wunderground v.1.15,2013-02-19 10:21:00,
2013-02-19 04:22:00,49.4,31.5,30.05,NE,54,1.0,2.0,50,0.00,,,0.00,Wunderground v.1.15,2013-02-19 10:22:00,
2013-02-19 04:27:00,49.2,31.3,30.05,NE,54,1.0,3.0,50,0.00,,,0.00,Wunderground v.1.15,2013-02-19 10:27:00,
2013-02-19 04:28:00,49.2,31.3,30.05,NE,54,1.0,3.0,50,0.00,,,0.00,Wunderground v.1.15,2013-02-19 10:28:00,
2013-02-19 04:30:00,49.2,31.3,30.05,NE,54,2.0,3.0,50,0.00,,,0.00,Wunderground v.1.15,2013-02-19 10:30:00,
2013-02-19 04:33:00,49.1,31.2,30.06,NE,54,2.0,3.0,50,0.00,,,0.00,Wunderground v.1.15,2013-02-19 10:33:00,
2013-02-19 04:35:00,49.1,31.2,30.06,NE,41,2.0,4.0,50,0.00,,,0.00,Wunderground v.1.15,2013-02-19 10:35:00,
2013-02-19 04:36:00,49.1,31.2,30.06,NE,41,2.0,4.0,50,0.00,,,0.00,Wunderground v.1.15,2013-02-19 10:36:00,
2013-02-19 04:38:00,49.1,31.2,30.06,North,7,2.0,4.0,50,0.00,,,0.00,Wunderground v.1.15,2013-02-19 10:38:00,
2013-02-19 04:42:00,49.2,30.8,30.06,NE,35,3.0,4.0,49,0.00,,,0.00,Wunderground v.1.15,2013-02-19 10:42:00,
2013-02-19 04:43:00,49.2,30.8,30.06,NE,37,3.0,4.0,49,0.00,,,0.00,Wunderground v.1.15,2013-02-19 10:43:00,
2013-02-19 04:44:00,49.4,31.0,30.06,ENE,76,3.0,4.0,49,0.00,,,0.00,Wunderground v.1.15,2013-02-19 10:44:00,
2013-02-19 04:45:00,49.4,31.0,30.06,North,11,3.0,5.0,49,0.00,,,0.00,Wunderground v.1.15,2013-02-19 10:45:00,
2013-02-19 04:50:00,49.5,30.6,30.06,NE,48,4.0,5.0,48,0.00,,,0.00,Wunderground v.1.15,2013-02-19 10:50:00,
2013-02-19 04:51:00,49.6,30.7,30.06,NE,34,4.0,9.0,48,0.00,,,0.00,Wunderground v.1.15,2013-02-19 10:51:00,
2013-02-19 04:54:00,49.8,30.9,30.06,NE,48,4.0,9.0,48,0.00,,,0.00,Wunderground v.1.15,2013-02-19 10:54:00,
2013-02-19 04:57:00,50.1,30.6,30.06,East,85,5.0,9.0,47,0.00,,,0.00,Wunderground v.1.15,2013-02-19 10:57:00,
2013-02-19 04:58:00,50.1,30.6,30.06,ENE,72,5.0,9.0,47,0.00,,,0.00,Wunderground v.1.15,2013-02-19 10:58:00,
2013-02-19 05:00:00,50.1,30.6,30.06,NE,54,5.0,5.0,47,0.00,,,0.00,Wunderground v.1.15,2013-02-19 11:00:00,
2013-02-19 05:03:00,50.1,30.6,30.06,ENE,64,4.0,5.0,47,0.00,,,0.00,Wunderground v.1.15,2013-02-19 11:03:00,
2013-02-19 05:04:00,50.1,30.6,30.06,NE,49,4.0,6.0,47,0.00,,,0.00,Wunderground v.1.15,2013-02-19 11:04:00,
2013-02-19 05:05:00,50.1,30.6,30.06,ENE,64,4.0,9.0,47,0.00,,,0.00,Wunderground v.1.15,2013-02-19 11:05:00,
2013-02-19 05:06:00,50.1,30.6,30.06,NE,48,4.0,9.0,47,0.00,,,0.00,Wunderground v.1.15,2013-02-19 11:06:00,
2013-02-19 05:10:00,49.9,30.5,30.06,NE,52,4.0,6.0,47,0.00,,,0.00,Wunderground v.1.15,2013-02-19 11:10:00,
2013-02-19 05:11:00,49.9,30.5,30.06,NE,48,4.0,6.0,47,0.00,,,0.00,Wunderground v.1.15,2013-02-19 11:11:00,
2013-02-19 05:14:00,49.8,30.9,30.06,ENE,58,4.0,6.0,48,0.00,,,0.00,Wunderground v.1.15,2013-02-19 11:14:00,
2013-02-19 05:16:00,49.8,30.9,30.06,NE,51,4.0,6.0,48,0.00,,,0.00,Wunderground v.1.15,2013-02-19 11:16:00,
2013-02-19 05:18:00,49.6,30.7,30.06,North,0,4.0,6.0,48,0.00,,,0.00,Wunderground v.1.15,2013-02-19 11:18:00,
2013-02-19 05:20:00,49.6,30.7,30.06,NE,44,4.0,6.0,48,0.00,,,0.00,Wunderground v.1.15,2013-02-19 11:20:00,
2013-02-19 05:21:00,49.6,30.7,30.06,ENE,75,4.0,7.0,48,0.00,,,0.00,Wunderground v.1.15,2013-02-19 11:21:00,
2013-02-19 05:25:00,49.5,30.6,30.06,NE,47,5.0,7.0,48,0.00,,,0.00,Wunderground v.1.15,2013-02-19 11:25:00,
2013-02-19 05:26:00,49.4,30.5,30.06,East,83,5.0,7.0,48,0.00,,,0.00,Wunderground v.1.15,2013-02-19 11:26:00,
2013-02-19 05:28:00,49.4,31.0,30.06,ENE,73,4.0,7.0,49,0.00,,,0.00,Wunderground v.1.15,2013-02-19 11:28:00,
2013-02-19 05:30:00,49.2,30.8,30.06,NE,51,5.0,7.0,49,0.00,,,0.00,Wunderground v.1.15,2013-02-19 11:30:00,
2013-02-19 05:31:00,49.2,30.8,30.06,North,7,5.0,8.0,49,0.00,,,0.00,Wunderground v.1.15,2013-02-19 11:31:00,
2013-02-19 05:35:00,49.2,30.8,30.06,NE,48,5.0,8.0,49,0.00,,,0.00,Wunderground v.1.15,2013-02-19 11:35:00,
2013-02-19 05:37:00,49.2,30.8,30.06,NE,49,5.0,8.0,49,0.00,,,0.00,Wunderground v.1.15,2013-02-19 11:37:00,
2013-02-19 05:38:00,49.2,30.8,30.06,NNE,28,5.0,8.0,49,0.00,,,0.00,Wunderground v.1.15,2013-02-19 11:38:00,
2013-02-19 05:43:00,49.1,31.2,30.06,ENE,78,4.0,6.0,50,0.00,,,0.00,Wunderground v.1.15,2013-02-19 11:43:00,
2013-02-19 05:45:00,49.1,31.2,30.06,ENE,59,5.0,6.0,50,0.00,,,0.00,Wunderground v.1.15,2013-02-19 11:45:00,
2013-02-19 05:46:00,49.1,31.2,30.07,NE,51,4.0,6.0,50,0.00,,,0.00,Wunderground v.1.15,2013-02-19 11:46:00,
2013-02-19 05:47:00,49.1,31.2,30.07,NE,48,4.0,6.0,50,0.00,,,0.00,Wunderground v.1.15,2013-02-19 11:47:00,
2013-02-19 05:48:00,48.9,31.1,30.07,NE,48,4.0,6.0,50,0.00,,,0.00,Wunderground v.1.15,2013-02-19 11:48:00,
2013-02-19 05:52:00,48.9,31.1,30.07,NE,44,3.0,6.0,50,0.00,,,0.00,Wunderground v.1.15,2013-02-19 11:52:00,
2013-02-19 05:54:00,48.9,31.1,30.07,NNE,20,3.0,6.0,50,0.00,,,0.00,Wunderground v.1.15,2013-02-19 11:54:00,
2013-02-19 05:55:00,48.8,31.0,30.07,NNE,20,3.0,6.0,50,0.00,,,0.00,Wunderground v.1.15,2013-02-19 11:55:00,
2013-02-19 05:56:00,48.8,31.5,30.07,NNE,20,3.0,6.0,51,0.00,,,0.00,Wunderground v.1.15,2013-02-19 11:56:00,
2013-02-19 05:58:00,48.8,31.5,30.07,NE,44,3.0,6.0,51,0.00,,,0.00,Wunderground v.1.15,2013-02-19 11:58:00,
2013-02-19 06:00:00,48.8,31.5,30.07,NE,48,3.0,5.0,51,0.00,,,0.00,Wunderground v.1.15,2013-02-19 12:00:00,
2013-02-19 06:02:00,48.6,31.3,30.08,NE,55,4.0,8.0,51,0.00,,,0.00,Wunderground v.1.15,2013-02-19 12:02:00,
2013-02-19 06:04:00,48.6,31.3,30.08,NE,38,4.0,8.0,51,0.00,,,0.00,Wunderground v.1.15,2013-02-19 12:04:00,
2013-02-19 06:05:00,48.6,31.3,30.08,NE,40,4.0,8.0,51,0.00,,,0.00,Wunderground v.1.15,2013-02-19 12:05:00,
2013-02-19 06:06:00,48.6,31.3,30.08,NE,47,4.0,8.0,51,0.00,,,0.00,Wunderground v.1.15,2013-02-19 12:06:00,
2013-02-19 06:10:00,48.5,31.2,30.08,NE,40,4.0,5.0,51,0.00,,,0.00,Wunderground v.1.15,2013-02-19 12:10:00,
2013-02-19 06:12:00,48.5,31.2,30.08,NNE,25,4.0,6.0,51,0.00,,,0.00,Wunderground v.1.15,2013-02-19 12:12:00,
2013-02-19 06:14:00,48.3,31.5,30.08,ENE,64,4.0,6.0,52,0.00,,,0.00,Wunderground v.1.15,2013-02-19 12:14:00,
2013-02-19 06:15:00,48.3,31.5,30.08,NE,42,4.0,6.0,52,0.00,,,0.00,Wunderground v.1.15,2013-02-19 12:15:00,
2013-02-19 06:17:00,48.3,31.5,30.10,North,1,4.0,6.0,52,0.00,,,0.00,Wunderground v.1.15,2013-02-19 12:17:00,
2013-02-19 06:20:00,48.2,31.4,30.10,NNE,32,4.0,4.0,52,0.00,,,0.00,Wunderground v.1.15,2013-02-19 12:20:00,
2013-02-19 06:22:00,48.0,31.2,30.10,North,6,4.0,7.0,52,0.00,,,0.00,Wunderground v.1.15,2013-02-19 12:22:00,
2013-02-19 06:26:00,48.0,31.2,30.10,NNE,21,4.0,7.0,52,0.00,,,0.00,Wunderground v.1.15,2013-02-19 12:26:00,
2013-02-19 06:27:00,47.9,31.1,30.10,NE,45,4.0,7.0,52,0.00,,,0.00,Wunderground v.1.15,2013-02-19 12:27:00,
2013-02-19 06:30:00,47.9,31.1,30.10,NE,34,5.0,5.0,52,0.00,,,0.00,Wunderground v.1.15,2013-02-19 12:30:00,
2013-02-19 06:31:00,47.9,31.1,30.10,NNE,27,5.0,5.0,52,0.00,,,0.00,Wunderground v.1.15,2013-02-19 12:31:00,
2013-02-19 06:32:00,47.9,31.6,30.10,NE,51,4.0,6.0,53,0.00,,,0.00,Wunderground v.1.15,2013-02-19 12:32:00,
2013-02-19 06:33:00,47.9,31.6,30.10,NNE,17,4.0,6.0,53,0.00,,,0.00,Wunderground v.1.15,2013-02-19 12:33:00,
2013-02-19 06:37:00,47.9,31.6,30.10,NE,42,4.0,6.0,53,0.00,,,0.00,Wunderground v.1.15,2013-02-19 12:37:00,
2013-02-19 06:38:00,47.9,31.6,30.10,NNE,31,5.0,8.0,53,0.00,,,0.00,Wunderground v.1.15,2013-02-19 12:38:00,
2013-02-19 06:40:00,47.9,31.6,30.10,NNE,27,5.0,5.0,53,0.00,,,0.00,Wunderground v.1.15,2013-02-19 12:40:00,
2013-02-19 06:41:00,47.9,31.6,30.10,North,0,5.0,5.0,53,0.00,,,0.00,Wunderground v.1.15,2013-02-19 12:41:00,
2013-02-19 06:43:00,47.9,31.6,30.10,NE,54,5.0,5.0,53,0.00,,,0.00,Wunderground v.1.15,2013-02-19 12:43:00,
2013-02-19 06:45:00,47.9,31.6,30.10,NE,44,4.0,5.0,53,0.00,,,0.00,Wunderground v.1.15,2013-02-19 12:45:00,
2013-02-19 06:48:00,48.0,31.7,30.11,NNE,14,5.0,6.0,53,0.00,,,0.00,Wunderground v.1.15,2013-02-19 12:48:00,
2013-02-19 06:50:00,48.0,31.7,30.11,North,354,4.0,6.0,53,0.00,,,0.00,Wunderground v.1.15,2013-02-19 12:50:00,
2013-02-19 06:51:00,47.9,31.1,30.11,North,8,4.0,5.0,52,0.00,,,0.00,Wunderground v.1.15,2013-02-19 12:51:00,
2013-02-19 06:54:00,48.0,31.2,30.11,NE,47,5.0,5.0,52,0.00,,,0.00,Wunderground v.1.15,2013-02-19 12:54:00,
2013-02-19 06:56:00,48.0,31.2,30.11,NE,48,5.0,6.0,52,0.00,,,0.00,Wunderground v.1.15,2013-02-19 12:56:00,
2013-02-19 06:57:00,48.0,31.7,30.11,North,3,5.0,6.0,53,0.00,,,0.00,Wunderground v.1.15,2013-02-19 12:57:00,
2013-02-19 06:58:00,48.0,31.2,30.11,NNE,27,5.0,6.0,52,0.00,,,0.00,Wunderground v.1.15,2013-02-19 12:58:00,
2013-02-19 07:00:00,48.0,31.2,30.11,NE,37,5.0,7.0,52,0.00,,,0.00,Wunderground v.1.15,2013-02-19 13:00:00,
2013-02-19 07:01:00,48.0,31.2,30.11,NNE,25,5.0,7.0,52,0.00,,,0.00,Wunderground v.1.15,2013-02-19 13:01:00,
2013-02-19 07:04:00,48.0,31.2,30.11,NNE,21,5.0,8.0,52,0.00,,,0.00,Wunderground v.1.15,2013-02-19 13:04:00,
2013-02-19 07:05:00,48.0,31.2,30.11,NNE,23,5.0,8.0,52,0.00,,,0.00,Wunderground v.1.15,2013-02-19 13:05:00,
2013-02-19 07:06:00,48.0,31.2,30.11,North,0,5.0,8.0,52,0.00,,,0.00,Wunderground v.1.15,2013-02-19 13:06:00,
2013-02-19 07:07:00,48.0,31.2,30.11,NE,45,5.0,8.0,52,0.00,,,0.00,Wunderground v.1.15,2013-02-19 13:07:00,
2013-02-19 07:10:00,48.0,31.2,30.11,North,359,6.0,6.0,52,0.00,,,0.00,Wunderground v.1.15,2013-02-19 13:10:00,
2013-02-19 07:12:00,47.9,31.6,30.11,NE,51,5.0,7.0,53,0.00,,,0.00,Wunderground v.1.15,2013-02-19 13:12:00,
2013-02-19 07:13:00,47.9,31.6,30.11,NE,44,5.0,7.0,53,0.00,,,0.00,Wunderground v.1.15,2013-02-19 13:13:00,
2013-02-19 07:15:00,47.9,31.6,30.11,NE,44,5.0,7.0,53,0.00,,,0.00,Wunderground v.1.15,2013-02-19 13:15:00,
2013-02-19 07:16:00,47.9,31.6,30.12,NE,42,5.0,7.0,53,0.00,,,0.00,Wunderground v.1.15,2013-02-19 13:16:00,
2013-02-19 07:19:00,47.9,31.6,30.12,NNE,23,5.0,7.0,53,0.00,,,0.00,Wunderground v.1.15,2013-02-19 13:19:00,
2013-02-19 07:21:00,47.9,31.6,30.12,NE,45,5.0,5.0,53,0.00,,,0.00,Wunderground v.1.15,2013-02-19 13:21:00,
2013-02-19 07:24:00,47.9,31.6,30.12,NNE,14,5.0,7.0,53,0.00,,,0.00,Wunderground v.1.15,2013-02-19 13:24:00,
2013-02-19 07:26:00,47.9,31.6,30.12,North,1,5.0,7.0,53,0.00,,,0.00,Wunderground v.1.15,2013-02-19 13:26:00,
2013-02-19 07:27:00,47.9,31.6,30.12,NNE,23,5.0,7.0,53,0.00,,,0.00,Wunderground v.1.15,2013-02-19 13:27:00,
2013-02-19 07:29:00,47.9,31.6,30.12,NE,55,5.0,7.0,53,0.00,,,0.00,Wunderground v.1.15,2013-02-19 13:29:00,
2013-02-19 07:35:00,47.9,31.6,30.13,NE,44,4.0,6.0,53,0.00,,,0.00,Wunderground v.1.15,2013-02-19 13:35:00,
2013-02-19 07:36:00,47.9,31.6,30.13,NNE,16,4.0,6.0,53,0.00,,,0.00,Wunderground v.1.15,2013-02-19 13:36:00,
2013-02-19 07:37:00,47.9,31.6,30.13,NNE,16,4.0,6.0,53,0.00,,,0.00,Wunderground v.1.15,2013-02-19 13:37:00,
2013-02-19 07:38:00,47.9,31.6,30.13,NNE,17,4.0,6.0,53,0.00,,,0.00,Wunderground v.1.15,2013-02-19 13:38:00,
2013-02-19 07:41:00,47.9,31.6,30.13,NE,47,4.0,4.0,53,0.00,,,0.00,Wunderground v.1.15,2013-02-19 13:41:00,
2013-02-19 07:44:00,47.9,31.6,30.13,NNE,28,4.0,4.0,53,0.00,,,0.00,Wunderground v.1.15,2013-02-19 13:44:00,
2013-02-19 07:46:00,47.9,31.6,30.13,North,359,4.0,6.0,53,0.00,,,0.00,Wunderground v.1.15,2013-02-19 13:46:00,
2013-02-19 07:47:00,47.9,31.6,30.13,North,10,4.0,6.0,53,0.00,,,0.00,Wunderground v.1.15,2013-02-19 13:47:00,
2013-02-19 07:50:00,48.0,31.7,30.13,NNE,20,4.0,6.0,53,0.00,,,0.00,Wunderground v.1.15,2013-02-19 13:50:00,
2013-02-19 07:53:00,48.2,31.4,30.13,NNE,31,4.0,5.0,52,0.00,,,0.00,Wunderground v.1.15,2013-02-19 13:53:00,
2013-02-19 07:54:00,48.2,31.4,30.13,NNE,32,4.0,5.0,52,0.00,,,0.00,Wunderground v.1.15,2013-02-19 13:54:00,
2013-02-19 07:57:00,48.3,31.5,30.13,NNE,20,4.0,5.0,52,0.00,,,0.00,Wunderground v.1.15,2013-02-19 13:57:00,
2013-02-19 07:59:00,48.5,31.7,30.13,NNE,32,4.0,6.0,52,0.00,,,0.00,Wunderground v.1.15,2013-02-19 13:59:00,
2013-02-19 08:03:00,48.8,31.9,30.14,NNE,17,4.0,4.0,52,0.00,,,0.00,Wunderground v.1.15,2013-02-19 14:03:00,
2013-02-19 08:04:00,48.8,31.9,30.14,North,359,4.0,4.0,52,0.00,,,0.00,Wunderground v.1.15,2013-02-19 14:04:00,
2013-02-19 08:05:00,48.8,31.9,30.14,North,359,4.0,5.0,52,0.00,,,0.00,Wunderground v.1.15,2013-02-19 14:05:00,
2013-02-19 08:06:00,48.9,32.0,30.14,NE,49,4.0,7.0,52,0.00,,,0.00,Wunderground v.1.15,2013-02-19 14:06:00,
2013-02-19 08:08:00,48.9,32.0,30.14,NNE,27,4.0,7.0,52,0.00,,,0.00,Wunderground v.1.15,2013-02-19 14:08:00,
2013-02-19 08:12:00,49.2,31.8,30.14,North,11,5.0,5.0,51,0.00,,,0.00,Wunderground v.1.15,2013-02-19 14:12:00,
2013-02-19 08:13:00,49.2,31.8,30.14,NE,56,5.0,7.0,51,0.00,,,0.00,Wunderground v.1.15,2013-02-19 14:13:00,
2013-02-19 08:14:00,49.4,32.0,30.14,NE,55,5.0,7.0,51,0.00,,,0.00,Wunderground v.1.15,2013-02-19 14:14:00,
2013-02-19 08:18:00,49.6,32.2,30.15,NNE,27,5.0,7.0,51,0.00,,,0.00,Wunderground v.1.15,2013-02-19 14:18:00,
2013-02-19 08:19:00,49.8,32.4,30.15,NNE,27,5.0,7.0,51,0.00,,,0.00,Wunderground v.1.15,2013-02-19 14:19:00,
2013-02-19 08:21:00,49.8,31.9,30.15,ENE,62,4.0,8.0,50,0.00,,,0.00,Wunderground v.1.15,2013-02-19 14:21:00,
2013-02-19 08:24:00,50.1,32.2,30.15,NE,37,4.0,8.0,50,0.00,,,0.00,Wunderground v.1.15,2013-02-19 14:24:00,
2013-02-19 08:26:00,50.2,31.8,30.15,ENE,64,4.0,9.0,49,0.00,,,0.00,Wunderground v.1.15,2013-02-19 14:26:00,
2013-02-19 08:29:00,50.4,31.9,30.15,NNE,17,4.0,9.0,49,0.00,,,0.00,Wunderground v.1.15,2013-02-19 14:29:00,
2013-02-19 08:31:00,50.5,32.0,30.16,NNE,30,4.0,5.0,49,0.00,,,0.00,Wunderground v.1.15,2013-02-19 14:31:00,
2013-02-19 08:34:00,50.8,31.8,30.16,NE,38,5.0,7.0,48,0.00,,,0.00,Wunderground v.1.15,2013-02-19 14:34:00,
2013-02-19 08:35:00,51.0,32.0,30.16,East,89,5.0,7.0,48,0.00,,,0.00,Wunderground v.1.15,2013-02-19 14:35:00,
2013-02-19 08:37:00,51.0,32.0,30.16,NNE,30,5.0,9.0,48,0.00,,,0.00,Wunderground v.1.15,2013-02-19 14:37:00,
2013-02-19 08:40:00,51.3,31.7,30.16,East,80,5.0,5.0,47,0.00,,,0.00,Wunderground v.1.15,2013-02-19 14:40:00,
2013-02-19 08:42:00,51.4,31.8,30.16,NE,40,5.0,5.0,47,0.00,,,0.00,Wunderground v.1.15,2013-02-19 14:42:00,
2013-02-19 08:43:00,51.4,31.8,30.16,ENE,68,5.0,8.0,47,0.00,,,0.00,Wunderground v.1.15,2013-02-19 14:43:00,
2013-02-19 08:46:00,51.7,32.1,30.16,NNE,31,5.0,8.0,47,0.00,,,0.00,Wunderground v.1.15,2013-02-19 14:46:00,
2013-02-19 08:48:00,51.7,32.1,30.16,ENE,64,5.0,8.0,47,0.00,,,0.00,Wunderground v.1.15,2013-02-19 14:48:00,
2013-02-19 08:49:00,51.9,32.3,30.16,NE,54,5.0,8.0,47,0.00,,,0.00,Wunderground v.1.15,2013-02-19 14:49:00,
2013-02-19 08:52:00,52.2,32.0,30.16,ENE,76,5.0,7.0,46,0.00,,,0.00,Wunderground v.1.15,2013-02-19 14:52:00,
2013-02-19 08:53:00,52.3,32.1,30.16,ENE,61,5.0,7.0,46,0.00,,,0.00,Wunderground v.1.15,2013-02-19 14:53:00,
2013-02-19 08:55:00,52.6,31.8,30.16,NNE,16,5.0,7.0,45,0.00,,,0.00,Wunderground v.1.15,2013-02-19 14:55:00,
2013-02-19 08:58:00,53.1,31.7,30.16,ENE,62,5.0,7.0,44,0.00,,,0.00,Wunderground v.1.15,2013-02-19 14:58:00,
2013-02-19 09:00:00,53.3,31.9,30.16,East,92,5.0,6.0,44,0.00,,,0.00,Wunderground v.1.15,2013-02-19 15:00:00,
2013-02-19 09:01:00,53.5,31.5,30.16,NE,40,5.0,6.0,43,0.00,,,0.00,Wunderground v.1.15,2013-02-19 15:01:00,
2013-02-19 09:03:00,53.6,31.0,30.16,ENE,64,5.0,12.0,42,0.00,,,0.00,Wunderground v.1.15,2013-02-19 15:03:00,
2013-02-19 09:04:00,53.6,31.0,30.16,ENE,65,5.0,12.0,42,0.00,,,0.00,Wunderground v.1.15,2013-02-19 15:04:00,
2013-02-19 09:06:00,53.8,30.6,30.16,ENE,59,5.0,12.0,41,0.00,,,0.00,Wunderground v.1.15,2013-02-19 15:06:00,
2013-02-19 09:11:00,53.9,30.1,30.16,SSE,151,7.0,10.0,40,0.00,,,0.00,Wunderground v.1.15,2013-02-19 15:11:00,
2013-02-19 09:12:00,53.9,30.1,30.16,ENE,72,7.0,10.0,40,0.00,,,0.00,Wunderground v.1.15,2013-02-19 15:12:00,
2013-02-19 09:13:00,53.9,30.7,30.16,East,83,7.0,13.0,41,0.00,,,0.00,Wunderground v.1.15,2013-02-19 15:13:00,
2013-02-19 09:17:00,54.1,29.7,30.16,East,89,9.0,13.0,39,0.00,,,0.00,Wunderground v.1.15,2013-02-19 15:17:00,
2013-02-19 09:19:00,54.1,29.7,30.16,East,79,9.0,13.0,39,0.00,,,0.00,Wunderground v.1.15,2013-02-19 15:19:00,
2013-02-19 09:20:00,54.1,29.0,30.16,East,83,8.0,8.0,38,0.00,,,0.00,Wunderground v.1.15,2013-02-19 15:20:00,
2013-02-19 09:23:00,54.2,29.1,30.16,North,3,9.0,9.0,38,0.00,,,0.00,Wunderground v.1.15,2013-02-19 15:23:00,
2013-02-19 09:27:00,54.4,29.3,30.16,ESE,121,9.0,15.0,38,0.00,,,0.00,Wunderground v.1.15,2013-02-19 15:27:00,
2013-02-19 09:28:00,54.4,29.3,30.16,ESE,102,9.0,15.0,38,0.00,,,0.00,Wunderground v.1.15,2013-02-19 15:28:00,
2013-02-19 09:29:00,54.5,29.4,30.16,ESE,104,8.0,15.0,38,0.00,,,0.00,Wunderground v.1.15,2013-02-19 15:29:00,
2013-02-19 09:33:00,54.7,29.6,30.16,NE,42,8.0,8.0,38,0.00,,,0.00,Wunderground v.1.15,2013-02-19 15:33:00,
2013-02-19 09:34:00,54.8,30.3,30.16,ESE,112,8.0,8.0,39,0.00,,,0.00,Wunderground v.1.15,2013-02-19 15:34:00,
2013-02-19 09:35:00,55.0,29.8,30.16,ESE,107,8.0,8.0,38,0.00,,,0.00,Wunderground v.1.15,2013-02-19 15:35:00,
2013-02-19 09:40:00,55.1,29.9,30.16,East,89,7.0,7.0,38,0.00,,,0.00,Wunderground v.1.15,2013-02-19 15:40:00,
2013-02-19 09:41:00,55.4,30.8,30.16,East,85,7.0,7.0,39,0.00,,,0.00,Wunderground v.1.15,2013-02-19 15:41:00,
2013-02-19 09:44:00,55.6,29.7,30.16,NE,37,8.0,8.0,37,0.00,,,0.00,Wunderground v.1.15,2013-02-19 15:44:00,
2013-02-19 09:45:00,55.6,29.0,30.16,East,82,7.0,10.0,36,0.00,,,0.00,Wunderground v.1.15,2013-02-19 15:45:00,
2013-02-19 09:47:00,55.6,29.7,30.16,ENE,65,7.0,12.0,37,0.00,,,0.00,Wunderground v.1.15,2013-02-19 15:47:00,
2013-02-19 09:50:00,55.6,29.7,30.16,ESE,103,8.0,12.0,37,0.00,,,0.00,Wunderground v.1.15,2013-02-19 15:50:00,
2013-02-19 09:52:00,55.7,29.1,30.16,NE,38,8.0,11.0,36,0.00,,,0.00,Wunderground v.1.15,2013-02-19 15:52:00,
2013-02-19 09:54:00,55.9,29.3,30.16,ENE,58,7.0,14.0,36,0.00,,,0.00,Wunderground v.1.15,2013-02-19 15:54:00,
2013-02-19 09:56:00,56.0,28.7,30.16,NE,51,7.0,14.0,35,0.00,,,0.00,Wunderground v.1.15,2013-02-19 15:56:00,
2013-02-19 09:59:00,56.0,28.7,30.16,East,85,7.0,14.0,35,0.00,,,0.00,Wunderground v.1.15,2013-02-19 15:59:00,
2013-02-19 10:00:00,56.2,28.9,30.16,ENE,75,7.0,11.0,35,0.00,,,0.00,Wunderground v.1.15,2013-02-19 16:00:00,
2013-02-19 10:04:00,56.2,28.9,30.16,East,96,7.0,11.0,35,0.00,,,0.00,Wunderground v.1.15,2013-02-19 16:04:00,
2013-02-19 10:05:00,56.2,28.9,30.16,NE,41,7.0,12.0,35,0.00,,,0.00,Wunderground v.1.15,2013-02-19 16:05:00,
2013-02-19 10:08:00,56.2,28.9,30.16,East,82,8.0,15.0,35,0.00,,,0.00,Wunderground v.1.15,2013-02-19 16:08:00,
2013-02-19 10:09:00,56.2,28.9,30.16,ESE,102,8.0,15.0,35,0.00,,,0.00,Wunderground v.1.15,2013-02-19 16:09:00,
2013-02-19 10:10:00,56.3,29.0,30.16,ESE,110,8.0,8.0,35,0.00,,,0.00,Wunderground v.1.15,2013-02-19 16:10:00,
2013-02-19 10:13:00,56.5,28.4,30.16,ESE,110,9.0,12.0,34,0.00,,,0.00,Wunderground v.1.15,2013-02-19 16:13:00,
2013-02-19 10:16:00,56.7,29.3,30.16,East,82,7.0,12.0,35,0.00,,,0.00,Wunderground v.1.15,2013-02-19 16:16:00,
2013-02-19 10:17:00,56.7,29.3,30.16,ESE,102,7.0,12.0,35,0.00,,,0.00,Wunderground v.1.15,2013-02-19 16:17:00,
2013-02-19 10:22:00,56.9,29.5,30.16,NE,48,7.0,8.0,35,0.00,,,0.00,Wunderground v.1.15,2013-02-19 16:22:00,
2013-02-19 10:24:00,56.9,29.5,30.16,NNE,32,7.0,12.0,35,0.00,,,0.00,Wunderground v.1.15,2013-02-19 16:24:00,
2013-02-19 10:26:00,56.9,29.5,30.16,NE,45,7.0,12.0,35,0.00,,,0.00,Wunderground v.1.15,2013-02-19 16:26:00,
2013-02-19 10:27:00,57.3,29.9,30.16,ENE,62,7.0,12.0,35,0.00,,,0.00,Wunderground v.1.15,2013-02-19 16:27:00,
2013-02-19 10:30:00,57.5,29.3,30.16,ESE,110,7.0,13.0,34,0.00,,,0.00,Wunderground v.1.15,2013-02-19 16:30:00,
2013-02-19 10:31:00,57.5,29.3,30.16,ESE,117,7.0,13.0,34,0.00,,,0.00,Wunderground v.1.15,2013-02-19 16:31:00,
2013-02-19 10:32:00,57.5,29.3,30.16,ESE,121,7.0,13.0,34,0.00,,,0.00,Wunderground v.1.15,2013-02-19 16:32:00,
2013-02-19 10:33:00,57.6,29.4,30.16,ESE,110,7.0,13.0,34,0.00,,,0.00,Wunderground v.1.15,2013-02-19 16:33:00,
2013-02-19 10:36:00,57.8,28.9,30.16,ENE,65,7.0,13.0,33,0.00,,,0.00,Wunderground v.1.15,2013-02-19 16:36:00,
2013-02-19 10:39:00,58.0,28.3,30.16,East,90,8.0,13.0,32,0.00,,,0.00,Wunderground v.1.15,2013-02-19 16:39:00,
2013-02-19 10:42:00,58.1,28.4,30.16,NE,54,7.0,16.0,32,0.00,,,0.00,Wunderground v.1.15,2013-02-19 16:42:00,
2013-02-19 10:44:00,58.0,28.3,30.16,ESE,106,7.0,16.0,32,0.00,,,0.00,Wunderground v.1.15,2013-02-19 16:44:00,
2013-02-19 10:45:00,58.0,29.0,30.16,NE,55,7.0,16.0,33,0.00,,,0.00,Wunderground v.1.15,2013-02-19 16:45:00,
2013-02-19 10:47:00,58.0,28.3,30.17,ESE,106,7.0,16.0,32,0.00,,,0.00,Wunderground v.1.15,2013-02-19 16:47:00,
2013-02-19 10:49:00,58.0,28.3,30.17,NE,44,7.0,16.0,32,0.00,,,0.00,Wunderground v.1.15,2013-02-19 16:49:00,
2013-02-19 10:50:00,57.8,28.9,30.17,NE,54,8.0,8.0,33,0.00,,,0.00,Wunderground v.1.15,2013-02-19 16:50:00,
2013-02-19 10:52:00,58.0,29.8,30.17,ENE,75,7.0,11.0,34,0.00,,,0.00,Wunderground v.1.15,2013-02-19 16:52:00,
2013-02-19 10:55:00,58.1,28.4,30.17,NNE,28,7.0,11.0,32,0.00,,,0.00,Wunderground v.1.15,2013-02-19 16:55:00,
2013-02-19 10:57:00,58.1,29.1,30.17,ENE,71,7.0,11.0,33,0.00,,,0.00,Wunderground v.1.15,2013-02-19 16:57:00,
2013-02-19 10:59:00,58.3,29.3,30.17,NE,55,7.0,11.0,33,0.00,,,0.00,Wunderground v.1.15,2013-02-19 16:59:00,
2013-02-19 11:03:00,58.6,28.8,30.16,ENE,78,7.0,13.0,32,0.00,,,0.00,Wunderground v.1.15,2013-02-19 17:03:00,
2013-02-19 11:04:00,58.6,28.8,30.16,NE,55,7.0,13.0,32,0.00,,,0.00,Wunderground v.1.15,2013-02-19 17:04:00,
2013-02-19 11:06:00,58.7,28.1,30.16,ENE,64,6.0,13.0,31,0.00,,,0.00,Wunderground v.1.15,2013-02-19 17:06:00,
2013-02-19 11:09:00,58.7,28.1,30.16,ESE,102,7.0,13.0,31,0.00,,,0.00,Wunderground v.1.15,2013-02-19 17:09:00,
2013-02-19 11:11:00,58.9,28.3,30.16,ENE,73,7.0,7.0,31,0.00,,,0.00,Wunderground v.1.15,2013-02-19 17:11:00,
2013-02-19 11:13:00,59.2,28.5,30.16,East,86,6.0,7.0,31,0.00,,,0.00,Wunderground v.1.15,2013-02-19 17:13:00,
2013-02-19 11:14:00,59.3,28.6,30.16,East,100,6.0,8.0,31,0.00,,,0.00,Wunderground v.1.15,2013-02-19 17:14:00,
2013-02-19 11:17:00,59.9,29.2,30.16,East,95,6.0,9.0,31,0.00,,,0.00,Wunderground v.1.15,2013-02-19 17:17:00,
2013-02-19 11:19:00,59.9,28.4,30.16,ESE,121,5.0,11.0,30,0.00,,,0.00,Wunderground v.1.15,2013-02-19 17:19:00,
2013-02-19 11:20:00,59.6,27.3,30.16,ENE,68,6.0,9.0,29,0.00,,,0.00,Wunderground v.1.15,2013-02-19 17:20:00,
2013-02-19 11:23:00,59.6,28.1,30.16,ENE,61,6.0,9.0,30,0.00,,,0.00,Wunderground v.1.15,2013-02-19 17:23:00,
2013-02-19 11:27:00,60.1,28.5,30.16,ESE,117,7.0,13.0,30,0.00,,,0.00,Wunderground v.1.15,2013-02-19 17:27:00,
2013-02-19 11:29:00,60.4,28.0,30.16,North,356,7.0,14.0,29,0.00,,,0.00,Wunderground v.1.15,2013-02-19 17:29:00,
2013-02-19 11:31:00,60.2,27.8,30.16,ENE,73,8.0,8.0,29,0.00,,,0.00,Wunderground v.1.15,2013-02-19 17:31:00,
2013-02-19 11:33:00,60.2,27.8,30.16,ENE,65,8.0,8.0,29,0.00,,,0.00,Wunderground v.1.15,2013-02-19 17:33:00,
2013-02-19 11:34:00,60.2,27.8,30.16,East,99,8.0,11.0,29,0.00,,,0.00,Wunderground v.1.15,2013-02-19 17:34:00,
2013-02-19 11:36:00,60.4,27.1,30.16,ESE,104,8.0,11.0,28,0.00,,,0.00,Wunderground v.1.15,2013-02-19 17:36:00,
2013-02-19 11:37:00,60.4,27.1,30.16,ENE,61,8.0,11.0,28,0.00,,,0.00,Wunderground v.1.15,2013-02-19 17:37:00,
2013-02-19 11:38:00,60.4,26.2,30.16,NE,55,8.0,11.0,27,0.00,,,0.00,Wunderground v.1.15,2013-02-19 17:38:00,
2013-02-19 11:40:00,60.4,27.1,30.16,NE,49,7.0,7.0,28,0.00,,,0.00,Wunderground v.1.15,2013-02-19 17:40:00,
2013-02-19 11:43:00,60.5,28.1,30.16,NE,56,7.0,8.0,29,0.00,,,0.00,Wunderground v.1.15,2013-02-19 17:43:00,
2013-02-19 11:44:00,60.5,28.1,30.16,East,85,7.0,8.0,29,0.00,,,0.00,Wunderground v.1.15,2013-02-19 17:44:00,
2013-02-19 11:45:00,60.5,28.1,30.16,ESE,106,7.0,8.0,29,0.00,,,0.00,Wunderground v.1.15,2013-02-19 17:45:00,
2013-02-19 11:48:00,60.9,27.5,30.16,East,90,7.0,8.0,28,0.00,,,0.00,Wunderground v.1.15,2013-02-19 17:48:00,
2013-02-19 11:49:00,61.0,27.6,30.16,East,85,6.0,8.0,28,0.00,,,0.00,Wunderground v.1.15,2013-02-19 17:49:00,
2013-02-19 11:50:00,61.2,26.9,30.16,ESE,114,7.0,7.0,27,0.00,,,0.00,Wunderground v.1.15,2013-02-19 17:50:00,
2013-02-19 11:55:00,61.0,27.6,30.16,ENE,78,7.0,9.0,28,0.00,,,0.00,Wunderground v.1.15,2013-02-19 17:55:00,
2013-02-19 11:56:00,61.0,27.6,30.16,ENE,61,6.0,9.0,28,0.00,,,0.00,Wunderground v.1.15,2013-02-19 17:56:00,
2013-02-19 11:59:00,61.8,28.3,30.16,ESE,119,6.0,13.0,28,0.00,,,0.00,Wunderground v.1.15,2013-02-19 17:59:00,
2013-02-19 12:00:00,61.8,28.3,30.15,ENE,58,6.0,6.0,28,0.00,,,0.00,Wunderground v.1.15,2013-02-19 18:00:00,
2013-02-19 12:02:00,61.6,28.1,30.15,East,82,6.0,6.0,28,0.00,,,0.00,Wunderground v.1.15,2013-02-19 18:02:00,
2013-02-19 12:04:00,61.8,28.3,30.15,ESE,116,6.0,7.0,28,0.00,,,0.00,Wunderground v.1.15,2013-02-19 18:04:00,
2013-02-19 12:08:00,62.0,28.5,30.15,East,88,7.0,12.0,28,0.00,,,0.00,Wunderground v.1.15,2013-02-19 18:08:00,
2013-02-19 12:09:00,61.8,28.3,30.15,SE,140,7.0,12.0,28,0.00,,,0.00,Wunderground v.1.15,2013-02-19 18:09:00,
2013-02-19 12:10:00,61.5,28.1,30.15,East,86,7.0,7.0,28,0.00,,,0.00,Wunderground v.1.15,2013-02-19 18:10:00,
2013-02-19 12:14:00,61.6,27.3,30.15,ESE,119,7.0,12.0,27,0.00,,,0.00,Wunderground v.1.15,2013-02-19 18:14:00,
2013-02-19 12:15:00,61.6,28.1,30.15,ENE,62,7.0,12.0,28,0.00,,,0.00,Wunderground v.1.15,2013-02-19 18:15:00,
2013-02-19 12:16:00,61.6,27.3,30.15,ESE,112,8.0,12.0,27,0.00,,,0.00,Wunderground v.1.15,2013-02-19 18:16:00,
2013-02-19 12:21:00,61.6,27.3,30.15,East,96,8.0,8.0,27,0.00,,,0.00,Wunderground v.1.15,2013-02-19 18:21:00,
2013-02-19 12:24:00,62.0,28.5,30.15,East,92,9.0,11.0,28,0.00,,,0.00,Wunderground v.1.15,2013-02-19 18:24:00,
2013-02-19 12:26:00,62.1,28.6,30.15,NE,44,9.0,11.0,28,0.00,,,0.00,Wunderground v.1.15,2013-02-19 18:26:00,
2013-02-19 12:31:00,62.3,28.7,30.14,ENE,71,7.0,7.0,28,0.00,,,0.00,Wunderground v.1.15,2013-02-19 18:31:00,
2013-02-19 12:33:00,62.7,29.1,30.14,ESE,106,7.0,11.0,28,0.00,,,0.00,Wunderground v.1.15,2013-02-19 18:33:00,
2013-02-19 12:37:00,62.9,29.3,30.14,East,90,7.0,11.0,28,0.00,,,0.00,Wunderground v.1.15,2013-02-19 18:37:00,
2013-02-19 12:38:00,62.9,28.4,30.14,ESE,116,7.0,11.0,27,0.00,,,0.00,Wunderground v.1.15,2013-02-19 18:38:00,
2013-02-19 12:39:00,62.9,28.4,30.14,NE,47,6.0,11.0,27,0.00,,,0.00,Wunderground v.1.15,2013-02-19 18:39:00,
2013-02-19 12:41:00,63.2,29.5,30.14,ENE,59,7.0,7.0,28,0.00,,,0.00,Wunderground v.1.15,2013-02-19 18:41:00,
2013-02-19 12:45:00,63.5,28.0,30.14,SE,145,6.0,12.0,26,0.00,,,0.00,Wunderground v.1.15,2013-02-19 18:45:00,
2013-02-19 12:46:00,63.4,27.9,30.12,SE,128,7.0,12.0,26,0.00,,,0.00,Wunderground v.1.15,2013-02-19 18:46:00,
2013-02-19 12:47:00,63.4,27.9,30.12,SE,137,7.0,12.0,26,0.00,,,0.00,Wunderground v.1.15,2013-02-19 18:47:00,
2013-02-19 12:51:00,62.9,27.5,30.12,East,89,8.0,8.0,26,0.00,,,0.00,Wunderground v.1.15,2013-02-19 18:51:00,
2013-02-19 12:53:00,63.1,27.6,30.12,SE,131,8.0,8.0,26,0.00,,,0.00,Wunderground v.1.15,2013-02-19 18:53:00,
2013-02-19 12:54:00,63.1,27.6,30.12,ESE,113,8.0,8.0,26,0.00,,,0.00,Wunderground v.1.15,2013-02-19 18:54:00,
2013-02-19 12:55:00,63.2,26.8,30.12,East,93,8.0,10.0,25,0.00,,,0.00,Wunderground v.1.15,2013-02-19 18:55:00,
2013-02-19 12:58:00,63.1,27.6,30.12,East,93,8.0,13.0,26,0.00,,,0.00,Wunderground v.1.15,2013-02-19 18:58:00,
2013-02-19 12:59:00,62.9,28.4,30.12,ESE,103,8.0,13.0,27,0.00,,,0.00,Wunderground v.1.15,2013-02-19 18:59:00,
2013-02-19 13:00:00,62.9,27.5,30.11,SE,127,8.0,12.0,26,0.00,,,0.00,Wunderground v.1.15,2013-02-19 19:00:00,
2013-02-19 13:04:00,62.7,27.3,30.11,East,92,8.0,12.0,26,0.00,,,0.00,Wunderground v.1.15,2013-02-19 19:04:00,
2013-02-19 13:05:00,62.6,27.2,30.11,ESE,116,8.0,12.0,26,0.00,,,0.00,Wunderground v.1.15,2013-02-19 19:05:00,
2013-02-19 13:07:00,62.7,27.3,30.11,SE,124,8.0,12.0,26,0.00,,,0.00,Wunderground v.1.15,2013-02-19 19:07:00,
2013-02-19 13:11:00,63.1,26.7,30.11,SE,140,7.0,13.0,25,0.00,,,0.00,Wunderground v.1.15,2013-02-19 19:11:00,
2013-02-19 13:12:00,62.9,26.5,30.11,East,95,7.0,13.0,25,0.00,,,0.00,Wunderground v.1.15,2013-02-19 19:12:00,
2013-02-19 13:15:00,63.1,27.6,30.11,ESE,103,8.0,13.0,26,0.00,,,0.00,Wunderground v.1.15,2013-02-19 19:15:00,
2013-02-19 13:16:00,63.1,27.6,30.10,ESE,110,7.0,13.0,26,0.00,,,0.00,Wunderground v.1.15,2013-02-19 19:16:00,
2013-02-19 13:18:00,63.1,27.6,30.10,SE,128,8.0,13.0,26,0.00,,,0.00,Wunderground v.1.15,2013-02-19 19:18:00,
2013-02-19 13:21:00,63.2,26.8,30.10,ESE,114,8.0,14.0,25,0.00,,,0.00,Wunderground v.1.15,2013-02-19 19:21:00,
2013-02-19 13:22:00,63.2,26.8,30.10,East,99,8.0,14.0,25,0.00,,,0.00,Wunderground v.1.15,2013-02-19 19:22:00,
2013-02-19 13:26:00,63.5,28.0,30.10,East,99,8.0,14.0,26,0.00,,,0.00,Wunderground v.1.15,2013-02-19 19:26:00,
2013-02-19 13:27:00,63.4,27.9,30.10,East,96,9.0,14.0,26,0.00,,,0.00,Wunderground v.1.15,2013-02-19 19:27:00,
2013-02-19 13:29:00,63.2,26.8,30.10,East,99,9.0,14.0,25,0.00,,,0.00,Wunderground v.1.15,2013-02-19 19:29:00,
2013-02-19 13:31:00,63.1,26.7,30.10,NE,56,10.0,10.0,25,0.00,,,0.00,Wunderground v.1.15,2013-02-19 19:31:00,
2013-02-19 13:33:00,63.1,27.6,30.10,SE,134,9.0,11.0,26,0.00,,,0.00,Wunderground v.1.15,2013-02-19 19:33:00,
2013-02-19 13:36:00,63.1,27.6,30.10,SSE,148,10.0,13.0,26,0.00,,,0.00,Wunderground v.1.15,2013-02-19 19:36:00,
2013-02-19 13:38:00,63.2,26.8,30.10,ESE,123,9.0,13.0,25,0.00,,,0.00,Wunderground v.1.15,2013-02-19 19:38:00,
2013-02-19 13:39:00,63.4,27.9,30.10,ESE,107,9.0,13.0,26,0.00,,,0.00,Wunderground v.1.15,2013-02-19 19:39:00,
2013-02-19 13:44:00,63.7,28.1,30.10,SE,127,9.0,12.0,26,0.00,,,0.00,Wunderground v.1.15,2013-02-19 19:44:00,
2013-02-19 13:45:00,63.9,28.3,30.10,East,85,9.0,12.0,26,0.00,,,0.00,Wunderground v.1.15,2013-02-19 19:45:00,
2013-02-19 13:48:00,63.9,28.3,30.08,ESE,113,9.0,13.0,26,0.00,,,0.00,Wunderground v.1.15,2013-02-19 19:48:00,
2013-02-19 13:50:00,63.7,28.1,30.08,ESE,113,9.0,13.0,26,0.00,,,0.00,Wunderground v.1.15,2013-02-19 19:50:00,
2013-02-19 13:51:00,63.9,28.3,30.08,ENE,66,9.0,9.0,26,0.00,,,0.00,Wunderground v.1.15,2013-02-19 19:51:00,
2013-02-19 13:52:00,63.9,29.2,30.08,ENE,64,9.0,9.0,27,0.00,,,0.00,Wunderground v.1.15,2013-02-19 19:52:00,
2013-02-19 13:55:00,64.2,28.6,30.08,East,80,8.0,11.0,26,0.00,,,0.00,Wunderground v.1.15,2013-02-19 19:55:00,
2013-02-19 13:56:00,64.5,28.8,30.08,SE,130,7.0,11.0,26,0.00,,,0.00,Wunderground v.1.15,2013-02-19 19:56:00,
2013-02-19 13:57:00,64.7,29.0,30.08,ESE,112,7.0,11.0,26,0.00,,,0.00,Wunderground v.1.15,2013-02-19 19:57:00,
2013-02-19 13:58:00,64.8,29.1,30.08,East,96,6.0,11.0,26,0.00,,,0.00,Wunderground v.1.15,2013-02-19 19:58:00,
2013-02-19 14:01:00,64.7,28.0,30.07,ESE,104,6.0,8.0,25,0.00,,,0.00,Wunderground v.1.15,2013-02-19 20:01:00,
2013-02-19 14:02:00,64.5,26.9,30.07,East,88,6.0,11.0,24,0.00,,,0.00,Wunderground v.1.15,2013-02-19 20:02:00,
2013-02-19 14:04:00,64.3,27.7,30.07,ESE,117,7.0,11.0,25,0.00,,,0.00,Wunderground v.1.15,2013-02-19 20:04:00,
2013-02-19 14:06:00,64.5,28.8,30.07,ENE,72,7.0,11.0,26,0.00,,,0.00,Wunderground v.1.15,2013-02-19 20:06:00,
2013-02-19 14:08:00,64.8,28.1,30.07,ESE,107,7.0,11.0,25,0.00,,,0.00,Wunderground v.1.15,2013-02-19 20:08:00,
2013-02-19 14:09:00,64.8,27.1,30.07,East,96,7.0,11.0,24,0.00,,,0.00,Wunderground v.1.15,2013-02-19 20:09:00,
2013-02-19 14:11:00,65.0,27.3,30.07,East,96,7.0,12.0,24,0.00,,,0.00,Wunderground v.1.15,2013-02-19 20:11:00,
2013-02-19 14:13:00,65.0,27.3,30.07,NE,51,7.0,12.0,24,0.00,,,0.00,Wunderground v.1.15,2013-02-19 20:13:00,
2013-02-19 14:14:00,65.0,26.3,30.07,ENE,78,7.0,12.0,23,0.00,,,0.00,Wunderground v.1.15,2013-02-19 20:14:00,
2013-02-19 14:16:00,64.7,27.0,30.07,East,97,8.0,12.0,24,0.00,,,0.00,Wunderground v.1.15,2013-02-19 20:16:00,
2013-02-19 14:18:00,64.7,28.0,30.07,SSE,150,8.0,12.0,25,0.00,,,0.00,Wunderground v.1.15,2013-02-19 20:18:00,
2013-02-19 14:19:00,64.7,27.0,30.07,ESE,110,8.0,12.0,24,0.00,,,0.00,Wunderground v.1.15,2013-02-19 20:19:00,
2013-02-19 14:23:00,65.0,27.3,30.07,East,90,8.0,19.0,24,0.00,,,0.00,Wunderground v.1.15,2013-02-19 20:23:00,
2013-02-19 14:25:00,65.3,27.5,30.07,East,100,8.0,19.0,24,0.00,,,0.00,Wunderground v.1.15,2013-02-19 20:25:00,
2013-02-19 14:27:00,65.5,27.7,30.07,SE,124,8.0,19.0,24,0.00,,,0.00,Wunderground v.1.15,2013-02-19 20:27:00,
2013-02-19 14:28:00,65.3,27.5,30.07,SE,124,8.0,19.0,24,0.00,,,0.00,Wunderground v.1.15,2013-02-19 20:28:00,
2013-02-19 14:30:00,65.8,28.0,30.06,East,93,8.0,11.0,24,0.00,,,0.00,Wunderground v.1.15,2013-02-19 20:30:00,
2013-02-19 14:31:00,65.8,28.0,30.06,ESE,109,8.0,11.0,24,0.00,,,0.00,Wunderground v.1.15,2013-02-19 20:31:00,
2013-02-19 14:34:00,66.0,27.1,30.06,ESE,102,8.0,13.0,23,0.00,,,0.00,Wunderground v.1.15,2013-02-19 20:34:00,
2013-02-19 14:36:00,66.0,27.1,30.06,ESE,110,8.0,14.0,23,0.00,,,0.00,Wunderground v.1.15,2013-02-19 20:36:00,
2013-02-19 14:39:00,65.8,25.9,30.06,SE,144,9.0,14.0,22,0.00,,,0.00,Wunderground v.1.15,2013-02-19 20:39:00,
2013-02-19 14:40:00,65.5,25.6,30.06,ESE,117,10.0,16.0,22,0.00,,,0.00,Wunderground v.1.15,2013-02-19 20:40:00,
2013-02-19 14:41:00,65.5,25.6,30.06,SE,124,10.0,16.0,22,0.00,,,0.00,Wunderground v.1.15,2013-02-19 20:41:00,
2013-02-19 14:42:00,65.5,25.6,30.06,ESE,120,10.0,16.0,22,0.00,,,0.00,Wunderground v.1.15,2013-02-19 20:42:00,
2013-02-19 14:44:00,65.5,25.6,30.06,SE,130,10.0,16.0,22,0.00,,,0.00,Wunderground v.1.15,2013-02-19 20:44:00,
2013-02-19 14:46:00,65.6,26.8,30.05,ESE,110,11.0,16.0,23,0.00,,,0.00,Wunderground v.1.15,2013-02-19 20:46:00,
2013-02-19 14:49:00,65.5,26.7,30.05,East,93,10.0,16.0,23,0.00,,,0.00,Wunderground v.1.15,2013-02-19 20:49:00,
2013-02-19 14:50:00,65.5,26.7,30.05,ESE,106,9.0,9.0,23,0.00,,,0.00,Wunderground v.1.15,2013-02-19 20:50:00,
2013-02-19 14:51:00,65.5,26.7,30.05,East,82,9.0,9.0,23,0.00,,,0.00,Wunderground v.1.15,2013-02-19 20:51:00,
2013-02-19 14:55:00,65.6,24.6,30.05,SE,133,8.0,11.0,21,0.00,,,0.00,Wunderground v.1.15,2013-02-19 20:55:00,
2013-02-19 14:57:00,65.5,24.5,30.05,East,97,7.0,11.0,21,0.00,,,0.00,Wunderground v.1.15,2013-02-19 20:57:00,
2013-02-19 15:00:00,65.5,27.7,30.04,East,99,6.0,6.0,24,0.00,,,0.00,Wunderground v.1.15,2013-02-19 21:00:00,
2013-02-19 15:01:00,65.5,27.7,30.04,SE,136,6.0,6.0,24,0.00,,,0.00,Wunderground v.1.15,2013-02-19 21:01:00,
2013-02-19 15:02:00,65.5,27.7,30.04,ENE,72,6.0,6.0,24,0.00,,,0.00,Wunderground v.1.15,2013-02-19 21:02:00,
2013-02-19 15:03:00,65.6,28.8,30.04,ENE,72,5.0,6.0,25,0.00,,,0.00,Wunderground v.1.15,2013-02-19 21:03:00,
2013-02-19 15:07:00,65.5,26.7,30.04,SE,144,5.0,12.0,23,0.00,,,0.00,Wunderground v.1.15,2013-02-19 21:07:00,
2013-02-19 15:09:00,65.5,26.7,30.04,ESE,114,6.0,12.0,23,0.00,,,0.00,Wunderground v.1.15,2013-02-19 21:09:00,
2013-02-19 15:11:00,65.3,26.5,30.04,ESE,110,7.0,14.0,23,0.00,,,0.00,Wunderground v.1.15,2013-02-19 21:11:00,
2013-02-19 15:12:00,65.0,26.3,30.04,ESE,116,8.0,14.0,23,0.00,,,0.00,Wunderground v.1.15,2013-02-19 21:12:00,
2013-02-19 15:16:00,64.8,27.1,30.04,ESE,110,9.0,14.0,24,0.00,,,0.00,Wunderground v.1.15,2013-02-19 21:16:00,
2013-02-19 15:17:00,64.8,27.1,30.04,East,99,9.0,14.0,24,0.00,,,0.00,Wunderground v.1.15,2013-02-19 21:17:00,
2013-02-19 15:18:00,64.8,27.1,30.04,East,88,9.0,14.0,24,0.00,,,0.00,Wunderground v.1.15,2013-02-19 21:18:00,
2013-02-19 15:19:00,64.8,26.1,30.04,East,88,8.0,14.0,23,0.00,,,0.00,Wunderground v.1.15,2013-02-19 21:19:00,
2013-02-19 15:23:00,64.8,26.1,30.04,ESE,112,9.0,9.0,23,0.00,,,0.00,Wunderground v.1.15,2013-02-19 21:23:00,
2013-02-19 15:24:00,64.8,27.1,30.04,ESE,121,8.0,17.0,24,0.00,,,0.00,Wunderground v.1.15,2013-02-19 21:24:00,
2013-02-19 15:28:00,65.0,26.3,30.04,ESE,120,8.0,17.0,23,0.00,,,0.00,Wunderground v.1.15,2013-02-19 21:28:00,
2013-02-19 15:29:00,65.0,26.3,30.04,East,88,9.0,17.0,23,0.00,,,0.00,Wunderground v.1.15,2013-02-19 21:29:00,
2013-02-19 15:31:00,64.8,26.1,30.03,ESE,109,8.0,14.0,23,0.00,,,0.00,Wunderground v.1.15,2013-02-19 21:31:00,
2013-02-19 15:32:00,64.8,25.0,30.03,SE,133,9.0,14.0,22,0.00,,,0.00,Wunderground v.1.15,2013-02-19 21:32:00,
2013-02-19 15:33:00,64.8,25.0,30.03,SE,140,9.0,14.0,22,0.00,,,0.00,Wunderground v.1.15,2013-02-19 21:33:00,
2013-02-19 15:34:00,64.8,26.1,30.03,ESE,103,9.0,14.0,23,0.00,,,0.00,Wunderground v.1.15,2013-02-19 21:34:00,
2013-02-19 15:38:00,64.8,26.1,30.03,ESE,117,8.0,14.0,23,0.00,,,0.00,Wunderground v.1.15,2013-02-19 21:38:00,
2013-02-19 15:39:00,64.8,26.1,30.03,SE,137,8.0,14.0,23,0.00,,,0.00,Wunderground v.1.15,2013-02-19 21:39:00,
2013-02-19 15:41:00,64.7,26.0,30.03,ESE,113,8.0,11.0,23,0.00,,,0.00,Wunderground v.1.15,2013-02-19 21:41:00,
2013-02-19 15:42:00,64.7,26.0,30.03,SE,127,8.0,11.0,23,0.00,,,0.00,Wunderground v.1.15,2013-02-19 21:42:00,
2013-02-19 15:44:00,64.5,26.9,30.03,SE,131,8.0,11.0,24,0.00,,,0.00,Wunderground v.1.15,2013-02-19 21:44:00,
2013-02-19 15:46:00,64.5,26.9,30.03,ESE,123,8.0,11.0,24,0.00,,,0.00,Wunderground v.1.15,2013-02-19 21:46:00,
2013-02-19 15:47:00,64.5,26.9,30.03,East,93,8.0,11.0,24,0.00,,,0.00,Wunderground v.1.15,2013-02-19 21:47:00,
2013-02-19 15:49:00,64.5,26.9,30.03,East,100,7.0,16.0,24,0.00,,,0.00,Wunderground v.1.15,2013-02-19 21:49:00,
2013-02-19 15:51:00,64.3,26.7,30.03,East,90,7.0,7.0,24,0.00,,,0.00,Wunderground v.1.15,2013-02-19 21:51:00,
2013-02-19 15:52:00,64.3,26.7,30.03,ESE,114,7.0,7.0,24,0.00,,,0.00,Wunderground v.1.15,2013-02-19 21:52:00,
2013-02-19 15:55:00,64.3,26.7,30.03,SE,136,7.0,11.0,24,0.00,,,0.00,Wunderground v.1.15,2013-02-19 21:55:00,
2013-02-19 15:57:00,64.2,26.6,30.03,ENE,61,7.0,11.0,24,0.00,,,0.00,Wunderground v.1.15,2013-02-19 21:57:00,
2013-02-19 16:01:00,64.2,26.6,30.03,ESE,102,8.0,8.0,24,0.00,,,0.00,Wunderground v.1.15,2013-02-19 22:01:00,
2013-02-19 16:02:00,64.2,26.6,30.03,ESE,112,8.0,8.0,24,0.00,,,0.00,Wunderground v.1.15,2013-02-19 22:02:00,
2013-02-19 16:03:00,64.2,26.6,30.03,ESE,112,8.0,8.0,24,0.00,,,0.00,Wunderground v.1.15,2013-02-19 22:03:00,
2013-02-19 16:07:00,64.3,25.7,30.03,ESE,123,7.0,11.0,23,0.00,,,0.00,Wunderground v.1.15,2013-02-19 22:07:00,
2013-02-19 16:08:00,64.3,25.7,30.03,SE,138,6.0,11.0,23,0.00,,,0.00,Wunderground v.1.15,2013-02-19 22:08:00,
2013-02-19 16:13:00,64.7,26.0,30.03,SE,138,6.0,12.0,23,0.00,,,0.00,Wunderground v.1.15,2013-02-19 22:13:00,
2013-02-19 16:14:00,64.7,26.0,30.03,ESE,106,7.0,12.0,23,0.00,,,0.00,Wunderground v.1.15,2013-02-19 22:14:00,
2013-02-19 16:16:00,64.7,26.0,30.02,ESE,114,7.0,12.0,23,0.00,,,0.00,Wunderground v.1.15,2013-02-19 22:16:00,
2013-02-19 16:19:00,64.8,26.1,30.02,East,95,7.0,12.0,23,0.00,,,0.00,Wunderground v.1.15,2013-02-19 22:19:00,
2013-02-19 16:21:00,64.8,26.1,30.02,SE,141,7.0,7.0,23,0.00,,,0.00,Wunderground v.1.15,2013-02-19 22:21:00,
2013-02-19 16:25:00,65.0,26.3,30.02,SE,128,7.0,11.0,23,0.00,,,0.00,Wunderground v.1.15,2013-02-19 22:25:00,
2013-02-19 16:28:00,64.7,26.0,30.02,ESE,114,7.0,12.0,23,0.00,,,0.00,Wunderground v.1.15,2013-02-19 22:28:00,
2013-02-19 16:29:00,64.7,26.0,30.02,SSE,161,7.0,12.0,23,0.00,,,0.00,Wunderground v.1.15,2013-02-19 22:29:00,
2013-02-19 16:30:00,64.7,26.0,30.02,ENE,75,7.0,7.0,23,0.00,,,0.00,Wunderground v.1.15,2013-02-19 22:30:00,
2013-02-19 16:35:00,64.5,26.9,30.02,ESE,114,6.0,11.0,24,0.00,,,0.00,Wunderground v.1.15,2013-02-19 22:35:00,
2013-02-19 16:37:00,64.7,27.0,30.02,ESE,104,5.0,11.0,24,0.00,,,0.00,Wunderground v.1.15,2013-02-19 22:37:00,
2013-02-19 16:39:00,64.7,27.0,30.02,East,90,5.0,11.0,24,0.00,,,0.00,Wunderground v.1.15,2013-02-19 22:39:00,
2013-02-19 16:40:00,64.5,26.9,30.02,ESE,107,6.0,8.0,24,0.00,,,0.00,Wunderground v.1.15,2013-02-19 22:40:00,
2013-02-19 16:41:00,64.5,26.9,30.02,ESE,112,6.0,8.0,24,0.00,,,0.00,Wunderground v.1.15,2013-02-19 22:41:00,
2013-02-19 16:42:00,64.5,26.9,30.02,SE,127,6.0,9.0,24,0.00,,,0.00,Wunderground v.1.15,2013-02-19 22:42:00,
2013-02-19 16:46:00,64.7,26.0,30.02,ESE,103,7.0,12.0,23,0.00,,,0.00,Wunderground v.1.15,2013-02-19 22:46:00,
2013-02-19 16:47:00,64.7,27.0,30.02,ESE,106,7.0,12.0,24,0.00,,,0.00,Wunderground v.1.15,2013-02-19 22:47:00,
2013-02-19 16:49:00,64.7,26.0,30.02,ENE,71,7.0,12.0,23,0.00,,,0.00,Wunderground v.1.15,2013-02-19 22:49:00,
2013-02-19 16:50:00,64.7,26.0,30.02,ESE,120,7.0,7.0,23,0.00,,,0.00,Wunderground v.1.15,2013-02-19 22:50:00,
2013-02-19 16:51:00,64.7,26.0,30.02,East,99,7.0,7.0,23,0.00,,,0.00,Wunderground v.1.15,2013-02-19 22:51:00,
2013-02-19 16:55:00,64.5,25.8,30.02,East,100,7.0,11.0,23,0.00,,,0.00,Wunderground v.1.15,2013-02-19 22:55:00,
2013-02-19 16:56:00,64.5,25.8,30.02,SE,136,6.0,11.0,23,0.00,,,0.00,Wunderground v.1.15,2013-02-19 22:56:00,
2013-02-19 16:58:00,64.7,26.0,30.02,SE,134,6.0,11.0,23,0.00,,,0.00,Wunderground v.1.15,2013-02-19 22:58:00,
2013-02-19 16:59:00,64.7,26.0,30.02,SE,128,6.0,11.0,23,0.00,,,0.00,Wunderground v.1.15,2013-02-19 22:59:00,
2013-02-19 17:01:00,64.5,26.9,30.02,ESE,120,6.0,6.0,24,0.00,,,0.00,Wunderground v.1.15,2013-02-19 23:01:00,
2013-02-19 17:03:00,64.5,26.9,30.02,SE,133,6.0,7.0,24,0.00,,,0.00,Wunderground v.1.15,2013-02-19 23:03:00,
2013-02-19 17:04:00,64.5,26.9,30.02,SE,127,5.0,9.0,24,0.00,,,0.00,Wunderground v.1.15,2013-02-19 23:04:00,
2013-02-19 17:06:00,64.5,25.8,30.02,ESE,114,6.0,11.0,23,0.00,,,0.00,Wunderground v.1.15,2013-02-19 23:06:00,
2013-02-19 17:08:00,64.3,25.7,30.02,East,80,7.0,11.0,23,0.00,,,0.00,Wunderground v.1.15,2013-02-19 23:08:00,
2013-02-19 17:11:00,64.2,25.6,30.02,ESE,106,8.0,8.0,23,0.00,,,0.00,Wunderground v.1.15,2013-02-19 23:11:00,
2013-02-19 17:13:00,64.2,25.6,30.02,SE,131,8.0,8.0,23,0.00,,,0.00,Wunderground v.1.15,2013-02-19 23:13:00,
2013-02-19 17:16:00,64.2,26.6,30.02,ESE,104,7.0,8.0,24,0.00,,,0.00,Wunderground v.1.15,2013-02-19 23:16:00,
2013-02-19 17:17:00,64.2,26.6,30.02,ESE,117,7.0,8.0,24,0.00,,,0.00,Wunderground v.1.15,2013-02-19 23:17:00,
2013-02-19 17:22:00,64.2,26.6,30.02,ESE,104,6.0,11.0,24,0.00,,,0.00,Wunderground v.1.15,2013-02-19 23:22:00,
2013-02-19 17:23:00,64.2,26.6,30.02,ESE,104,7.0,11.0,24,0.00,,,0.00,Wunderground v.1.15,2013-02-19 23:23:00,
2013-02-19 17:24:00,64.2,26.6,30.02,East,92,7.0,11.0,24,0.00,,,0.00,Wunderground v.1.15,2013-02-19 23:24:00,
2013-02-19 17:25:00,64.2,26.6,30.02,ESE,107,7.0,11.0,24,0.00,,,0.00,Wunderground v.1.15,2013-02-19 23:25:00,
2013-02-19 17:27:00,64.0,26.4,30.02,East,90,8.0,11.0,24,0.00,,,0.00,Wunderground v.1.15,2013-02-19 23:27:00,
2013-02-19 17:28:00,64.0,26.4,30.02,ESE,119,8.0,11.0,24,0.00,,,0.00,Wunderground v.1.15,2013-02-19 23:28:00,
2013-02-19 17:31:00,64.0,26.4,30.02,ESE,123,8.0,8.0,24,0.00,,,0.00,Wunderground v.1.15,2013-02-19 23:31:00,
2013-02-19 17:33:00,64.0,26.4,30.02,ESE,117,8.0,11.0,24,0.00,,,0.00,Wunderground v.1.15,2013-02-19 23:33:00,
2013-02-19 17:36:00,63.9,27.4,30.02,ESE,113,7.0,11.0,25,0.00,,,0.00,Wunderground v.1.15,2013-02-19 23:36:00,
2013-02-19 17:38:00,63.9,27.4,30.02,East,83,7.0,11.0,25,0.00,,,0.00,Wunderground v.1.15,2013-02-19 23:38:00,
2013-02-19 17:39:00,63.9,27.4,30.02,ESE,123,6.0,11.0,25,0.00,,,0.00,Wunderground v.1.15,2013-02-19 23:39:00,
2013-02-19 17:41:00,63.9,27.4,30.02,SE,141,7.0,7.0,25,0.00,,,0.00,Wunderground v.1.15,2013-02-19 23:41:00,
2013-02-19 17:44:00,63.7,27.2,30.02,East,80,6.0,8.0,25,0.00,,,0.00,Wunderground v.1.15,2013-02-19 23:44:00,
2013-02-19 17:45:00,63.7,27.2,30.02,SE,140,6.0,8.0,25,0.00,,,0.00,Wunderground v.1.15,2013-02-19 23:45:00,
2013-02-19 17:46:00,63.7,27.2,30.03,SE,137,6.0,8.0,25,0.00,,,0.00,Wunderground v.1.15,2013-02-19 23:46:00,
2013-02-19 17:47:00,63.7,27.2,30.03,ESE,123,6.0,8.0,25,0.00,,,0.00,Wunderground v.1.15,2013-02-19 23:47:00,
2013-02-19 17:51:00,63.7,27.2,30.03,ESE,123,6.0,7.0,25,0.00,,,0.00,Wunderground v.1.15,2013-02-19 23:51:00,
2013-02-19 17:54:00,63.5,27.0,30.03,SE,124,6.0,11.0,25,0.00,,,0.00,Wunderground v.1.15,2013-02-19 23:54:00,
2013-02-19 17:56:00,63.5,27.0,30.03,SE,126,6.0,11.0,25,0.00,,,0.00,Wunderground v.1.15,2013-02-19 23:56:00,
2013-02-19 17:57:00,63.5,27.0,30.03,ESE,117,5.0,11.0,25,0.00,,,0.00,Wunderground v.1.15,2013-02-19 23:57:00,
2013-02-19 18:01:00,63.5,27.0,30.03,East,97,5.0,5.0,25,0.00,,,0.00,Wunderground v.1.15,2013-02-20 00:01:00,
2013-02-19 18:02:00,63.5,27.0,30.03,ESE,107,5.0,9.0,25,0.00,,,0.00,Wunderground v.1.15,2013-02-20 00:02:00,
2013-02-19 18:03:00,63.5,27.0,30.03,East,85,5.0,9.0,25,0.00,,,0.00,Wunderground v.1.15,2013-02-20 00:03:00,
2013-02-19 18:04:00,63.4,26.9,30.03,East,89,5.0,9.0,25,0.00,,,0.00,Wunderground v.1.15,2013-02-20 00:04:00,
2013-02-19 18:06:00,63.4,26.9,30.03,ESE,112,5.0,10.0,25,0.00,,,0.00,Wunderground v.1.15,2013-02-20 00:06:00,
2013-02-19 18:08:00,63.4,26.9,30.03,East,100,5.0,10.0,25,0.00,,,0.00,Wunderground v.1.15,2013-02-20 00:08:00,
2013-02-19 18:09:00,63.4,26.9,30.03,ESE,106,5.0,10.0,25,0.00,,,0.00,Wunderground v.1.15,2013-02-20 00:09:00,
2013-02-19 18:11:00,63.2,26.8,30.03,ESE,117,6.0,6.0,25,0.00,,,0.00,Wunderground v.1.15,2013-02-20 00:11:00,
2013-02-19 18:13:00,63.2,26.8,30.03,East,95,5.0,6.0,25,0.00,,,0.00,Wunderground v.1.15,2013-02-20 00:13:00,
2013-02-19 18:16:00,63.2,27.7,30.02,ESE,123,5.0,6.0,26,0.00,,,0.00,Wunderground v.1.15,2013-02-20 00:16:00,
2013-02-19 18:17:00,63.1,27.6,30.02,ESE,107,4.0,6.0,26,0.00,,,0.00,Wunderground v.1.15,2013-02-20 00:17:00,
2013-02-19 18:18:00,63.1,27.6,30.02,ESE,106,4.0,6.0,26,0.00,,,0.00,Wunderground v.1.15,2013-02-20 00:18:00,
2013-02-19 18:21:00,63.1,27.6,30.02,ESE,103,4.0,5.0,26,0.00,,,0.00,Wunderground v.1.15,2013-02-20 00:21:00,
2013-02-19 18:23:00,62.9,27.5,30.02,ESE,120,5.0,5.0,26,0.00,,,0.00,Wunderground v.1.15,2013-02-20 00:23:00,
2013-02-19 18:24:00,62.9,27.5,30.02,ESE,119,5.0,5.0,26,0.00,,,0.00,Wunderground v.1.15,2013-02-20 00:24:00,
2013-02-19 18:29:00,62.9,27.5,30.02,East,96,5.0,8.0,26,0.00,,,0.00,Wunderground v.1.15,2013-02-20 00:29:00,
2013-02-19 18:31:00,62.9,27.5,30.02,SE,131,5.0,7.0,26,0.00,,,0.00,Wunderground v.1.15,2013-02-20 00:31:00,
2013-02-19 18:32:00,62.9,27.5,30.02,East,95,5.0,7.0,26,0.00,,,0.00,Wunderground v.1.15,2013-02-20 00:32:00,
2013-02-19 18:34:00,62.7,27.3,30.02,SE,138,5.0,7.0,26,0.00,,,0.00,Wunderground v.1.15,2013-02-20 00:34:00,
2013-02-19 18:36:00,62.7,27.3,30.02,ESE,120,5.0,7.0,26,0.00,,,0.00,Wunderground v.1.15,2013-02-20 00:36:00,
2013-02-19 18:37:00,62.7,27.3,30.02,ESE,106,5.0,7.0,26,0.00,,,0.00,Wunderground v.1.15,2013-02-20 00:37:00,
2013-02-19 18:41:00,62.6,27.2,30.02,ESE,103,5.0,5.0,26,0.00,,,0.00,Wunderground v.1.15,2013-02-20 00:41:00,
2013-02-19 18:43:00,62.6,27.2,30.02,ESE,114,5.0,7.0,26,0.00,,,0.00,Wunderground v.1.15,2013-02-20 00:43:00,
2013-02-19 18:45:00,62.6,27.2,30.02,ESE,112,5.0,7.0,26,0.00,,,0.00,Wunderground v.1.15,2013-02-20 00:45:00,
2013-02-19 18:46:00,62.6,27.2,30.01,ESE,112,5.0,7.0,26,0.00,,,0.00,Wunderground v.1.15,2013-02-20 00:46:00,
2013-02-19 18:48:00,62.6,27.2,30.01,ESE,114,6.0,10.0,26,0.00,,,0.00,Wunderground v.1.15,2013-02-20 00:48:00,
2013-02-19 18:49:00,62.6,27.2,30.01,ESE,116,6.0,11.0,26,0.00,,,0.00,Wunderground v.1.15,2013-02-20 00:49:00,
2013-02-19 18:53:00,62.6,27.2,30.01,SE,130,6.0,6.0,26,0.00,,,0.00,Wunderground v.1.15,2013-02-20 00:53:00,
2013-02-19 18:56:00,62.4,27.9,30.01,ESE,107,5.0,6.0,27,0.00,,,0.00,Wunderground v.1.15,2013-02-20 00:56:00,
2013-02-19 18:57:00,62.4,27.0,30.01,ESE,107,5.0,8.0,26,0.00,,,0.00,Wunderground v.1.15,2013-02-20 00:57:00,
2013-02-19 18:58:00,62.4,27.0,30.01,ESE,119,5.0,8.0,26,0.00,,,0.00,Wunderground v.1.15,2013-02-20 00:58:00,
2013-02-19 18:59:00,62.4,27.0,30.01,East,90,5.0,8.0,26,0.00,,,0.00,Wunderground v.1.15,2013-02-20 00:59:00,
2013-02-19 19:03:00,62.3,26.9,30.01,East,97,5.0,6.0,26,0.00,,,0.00,Wunderground v.1.15,2013-02-20 01:03:00,
2013-02-19 19:04:00,62.3,26.9,30.01,SE,124,5.0,6.0,26,0.00,,,0.00,Wunderground v.1.15,2013-02-20 01:04:00,
2013-02-19 19:05:00,62.3,26.9,30.01,East,96,5.0,6.0,26,0.00,,,0.00,Wunderground v.1.15,2013-02-20 01:05:00,
2013-02-19 19:08:00,62.1,26.8,30.01,SE,124,6.0,13.0,26,0.00,,,0.00,Wunderground v.1.15,2013-02-20 01:08:00,
2013-02-19 19:11:00,62.1,26.8,30.01,SE,126,5.0,11.0,26,0.00,,,0.00,Wunderground v.1.15,2013-02-20 01:11:00,
2013-02-19 19:13:00,62.1,26.8,30.01,East,99,6.0,11.0,26,0.00,,,0.00,Wunderground v.1.15,2013-02-20 01:13:00,
2013-02-19 19:14:00,62.1,26.8,30.01,ESE,121,6.0,11.0,26,0.00,,,0.00,Wunderground v.1.15,2013-02-20 01:14:00,
2013-02-19 19:16:00,62.1,26.8,30.02,East,99,6.0,11.0,26,0.00,,,0.00,Wunderground v.1.15,2013-02-20 01:16:00,
2013-02-19 19:18:00,62.0,26.7,30.02,ESE,107,6.0,11.0,26,0.00,,,0.00,Wunderground v.1.15,2013-02-20 01:18:00,
2013-02-19 19:19:00,62.0,26.7,30.02,East,100,6.0,11.0,26,0.00,,,0.00,Wunderground v.1.15,2013-02-20 01:19:00,
2013-02-19 19:24:00,62.0,26.7,30.02,SE,130,5.0,7.0,26,0.00,,,0.00,Wunderground v.1.15,2013-02-20 01:24:00,
2013-02-19 19:27:00,61.8,27.4,30.02,ESE,112,5.0,7.0,27,0.00,,,0.00,Wunderground v.1.15,2013-02-20 01:27:00,
2013-02-19 19:29:00,61.8,27.4,30.02,ESE,117,5.0,7.0,27,0.00,,,0.00,Wunderground v.1.15,2013-02-20 01:29:00,
2013-02-19 19:32:00,61.8,27.4,30.01,SE,124,6.0,6.0,27,0.00,,,0.00,Wunderground v.1.15,2013-02-20 01:32:00,
2013-02-19 19:35:00,61.8,27.4,30.01,ESE,112,6.0,8.0,27,0.00,,,0.00,Wunderground v.1.15,2013-02-20 01:35:00,
2013-02-19 19:36:00,61.8,27.4,30.01,SE,127,6.0,8.0,27,0.00,,,0.00,Wunderground v.1.15,2013-02-20 01:36:00,
2013-02-19 19:37:00,61.6,27.3,30.01,ESE,106,6.0,10.0,27,0.00,,,0.00,Wunderground v.1.15,2013-02-20 01:37:00,
2013-02-19 19:41:00,61.6,27.3,30.01,ESE,113,6.0,10.0,27,0.00,,,0.00,Wunderground v.1.15,2013-02-20 01:41:00,
2013-02-19 19:43:00,61.6,27.3,30.01,SE,124,6.0,14.0,27,0.00,,,0.00,Wunderground v.1.15,2013-02-20 01:43:00,
2013-02-19 19:45:00,61.6,27.3,30.01,East,95,6.0,14.0,27,0.00,,,0.00,Wunderground v.1.15,2013-02-20 01:45:00,
2013-02-19 19:48:00,61.6,27.3,30.03,ESE,107,5.0,14.0,27,0.00,,,0.00,Wunderground v.1.15,2013-02-20 01:48:00,
2013-02-19 19:49:00,61.6,27.3,30.03,SE,130,5.0,14.0,27,0.00,,,0.00,Wunderground v.1.15,2013-02-20 01:49:00,
2013-02-19 19:51:00,61.6,27.3,30.03,SE,130,4.0,4.0,27,0.00,,,0.00,Wunderground v.1.15,2013-02-20 01:51:00,
2013-02-19 19:54:00,61.5,27.2,30.03,ESE,116,4.0,8.0,27,0.00,,,0.00,Wunderground v.1.15,2013-02-20 01:54:00,
2013-02-19 19:56:00,61.5,27.2,30.03,East,96,4.0,8.0,27,0.00,,,0.00,Wunderground v.1.15,2013-02-20 01:56:00,
2013-02-19 19:58:00,61.5,27.2,30.03,ESE,107,4.0,8.0,27,0.00,,,0.00,Wunderground v.1.15,2013-02-20 01:58:00,
2013-02-19 20:01:00,61.5,28.1,30.03,East,100,4.0,4.0,28,0.00,,,0.00,Wunderground v.1.15,2013-02-20 02:01:00,
2013-02-19 20:04:00,61.3,27.9,30.03,ESE,109,4.0,6.0,28,0.00,,,0.00,Wunderground v.1.15,2013-02-20 02:04:00,
2013-02-19 20:06:00,61.3,27.9,30.03,SE,126,5.0,7.0,28,0.00,,,0.00,Wunderground v.1.15,2013-02-20 02:06:00,
2013-02-19 20:08:00,61.3,27.9,30.03,East,85,5.0,8.0,28,0.00,,,0.00,Wunderground v.1.15,2013-02-20 02:08:00,
2013-02-19 20:11:00,61.3,27.9,30.03,ESE,123,6.0,10.0,28,0.00,,,0.00,Wunderground v.1.15,2013-02-20 02:11:00,
2013-02-19 20:15:00,61.2,26.9,30.03,ESE,112,7.0,12.0,27,0.00,,,0.00,Wunderground v.1.15,2013-02-20 02:15:00,
2013-02-19 20:16:00,61.2,27.8,30.02,ESE,114,6.0,12.0,28,0.00,,,0.00,Wunderground v.1.15,2013-02-20 02:16:00,
2013-02-19 20:17:00,61.2,27.8,30.02,ESE,119,7.0,12.0,28,0.00,,,0.00,Wunderground v.1.15,2013-02-20 02:17:00,
2013-02-19 20:19:00,61.0,27.6,30.02,ESE,121,7.0,12.0,28,0.00,,,0.00,Wunderground v.1.15,2013-02-20 02:19:00,
2013-02-19 20:24:00,60.9,27.5,30.02,East,85,5.0,10.0,28,0.00,,,0.00,Wunderground v.1.15,2013-02-20 02:24:00,
2013-02-19 20:25:00,60.9,27.5,30.02,ESE,123,6.0,10.0,28,0.00,,,0.00,Wunderground v.1.15,2013-02-20 02:25:00,
2013-02-19 20:27:00,60.9,27.5,30.02,East,83,6.0,10.0,28,0.00,,,0.00,Wunderground v.1.15,2013-02-20 02:27:00,
2013-02-19 20:29:00,60.9,27.5,30.02,ESE,104,6.0,10.0,28,0.00,,,0.00,Wunderground v.1.15,2013-02-20 02:29:00,
2013-02-19 20:33:00,60.7,27.4,30.01,East,96,7.0,7.0,28,0.00,,,0.00,Wunderground v.1.15,2013-02-20 02:33:00,
2013-02-19 20:34:00,60.7,28.2,30.01,East,85,6.0,7.0,29,0.00,,,0.00,Wunderground v.1.15,2013-02-20 02:34:00,
2013-02-19 20:35:00,60.7,28.2,30.01,ESE,114,6.0,7.0,29,0.00,,,0.00,Wunderground v.1.15,2013-02-20 02:35:00,
2013-02-19 20:38:00,60.5,28.1,30.01,ESE,113,5.0,7.0,29,0.00,,,0.00,Wunderground v.1.15,2013-02-20 02:38:00,
2013-02-19 20:41:00,60.5,28.1,30.01,East,89,6.0,6.0,29,0.00,,,0.00,Wunderground v.1.15,2013-02-20 02:41:00,
2013-02-19 20:43:00,60.5,28.1,30.01,ESE,102,6.0,8.0,29,0.00,,,0.00,Wunderground v.1.15,2013-02-20 02:43:00,
2013-02-19 20:45:00,60.5,28.1,30.01,East,95,6.0,10.0,29,0.00,,,0.00,Wunderground v.1.15,2013-02-20 02:45:00,
2013-02-19 20:47:00,60.5,28.9,30.01,ESE,107,6.0,10.0,30,0.00,,,0.00,Wunderground v.1.15,2013-02-20 02:47:00,
2013-02-19 20:51:00,60.4,28.8,30.01,ESE,121,7.0,11.0,30,0.00,,,0.00,Wunderground v.1.15,2013-02-20 02:51:00,
2013-02-19 20:52:00,60.4,28.8,30.01,East,79,7.0,8.0,30,0.00,,,0.00,Wunderground v.1.15,2013-02-20 02:52:00,
2013-02-19 20:57:00,60.4,28.8,30.01,SE,137,7.0,12.0,30,0.00,,,0.00,Wunderground v.1.15,2013-02-20 02:57:00,
2013-02-19 20:58:00,60.4,28.8,30.01,SSE,150,6.0,12.0,30,0.00,,,0.00,Wunderground v.1.15,2013-02-20 02:58:00,
2013-02-19 20:59:00,60.4,28.8,30.01,ESE,121,6.0,12.0,30,0.00,,,0.00,Wunderground v.1.15,2013-02-20 02:59:00,
2013-02-19 21:03:00,60.4,28.8,30.01,ESE,119,5.0,6.0,30,0.00,,,0.00,Wunderground v.1.15,2013-02-20 03:03:00,
2013-02-19 21:05:00,60.4,28.8,30.01,East,96,6.0,6.0,30,0.00,,,0.00,Wunderground v.1.15,2013-02-20 03:05:00,
2013-02-19 21:06:00,60.4,28.8,30.01,ESE,107,5.0,7.0,30,0.00,,,0.00,Wunderground v.1.15,2013-02-20 03:06:00,
2013-02-19 21:11:00,60.2,28.6,30.01,SE,140,6.0,6.0,30,0.00,,,0.00,Wunderground v.1.15,2013-02-20 03:11:00,
2013-02-19 21:12:00,60.2,28.6,30.01,ESE,117,6.0,6.0,30,0.00,,,0.00,Wunderground v.1.15,2013-02-20 03:12:00,
2013-02-19 21:13:00,60.2,28.6,30.01,ESE,114,6.0,6.0,30,0.00,,,0.00,Wunderground v.1.15,2013-02-20 03:13:00,
2013-02-19 21:18:00,60.2,28.6,30.01,ESE,102,5.0,11.0,30,0.00,,,0.00,Wunderground v.1.15,2013-02-20 03:18:00,
2013-02-19 21:19:00,60.2,28.6,30.01,ESE,106,6.0,11.0,30,0.00,,,0.00,Wunderground v.1.15,2013-02-20 03:19:00,
2013-02-19 21:20:00,60.1,28.5,30.01,ESE,110,6.0,11.0,30,0.00,,,0.00,Wunderground v.1.15,2013-02-20 03:20:00,
2013-02-19 21:22:00,60.1,28.5,30.01,ESE,117,6.0,9.0,30,0.00,,,0.00,Wunderground v.1.15,2013-02-20 03:22:00,
2013-02-19 21:24:00,60.1,28.5,30.01,SSE,150,6.0,9.0,30,0.00,,,0.00,Wunderground v.1.15,2013-02-20 03:24:00,
2013-02-19 21:25:00,60.1,28.5,30.01,East,97,6.0,9.0,30,0.00,,,0.00,Wunderground v.1.15,2013-02-20 03:25:00,
2013-02-19 21:27:00,60.1,28.5,30.01,ESE,123,7.0,9.0,30,0.00,,,0.00,Wunderground v.1.15,2013-02-20 03:27:00,
2013-02-19 21:31:00,60.1,27.7,30.01,ESE,103,6.0,9.0,29,0.00,,,0.00,Wunderground v.1.15,2013-02-20 03:31:00,
2013-02-19 21:32:00,60.1,27.7,30.01,ESE,110,6.0,9.0,29,0.00,,,0.00,Wunderground v.1.15,2013-02-20 03:32:00,
2013-02-19 21:34:00,60.1,27.7,30.01,ENE,75,6.0,12.0,29,0.00,,,0.00,Wunderground v.1.15,2013-02-20 03:34:00,
2013-02-19 21:35:00,60.1,27.7,30.01,East,100,6.0,12.0,29,0.00,,,0.00,Wunderground v.1.15,2013-02-20 03:35:00,
2013-02-19 21:38:00,59.9,27.5,30.01,ESE,102,7.0,12.0,29,0.00,,,0.00,Wunderground v.1.15,2013-02-20 03:38:00,
2013-02-19 21:40:00,59.9,27.5,30.01,ESE,104,7.0,12.0,29,0.00,,,0.00,Wunderground v.1.15,2013-02-20 03:40:00,
2013-02-19 21:41:00,59.9,27.5,30.01,ESE,107,7.0,7.0,29,0.00,,,0.00,Wunderground v.1.15,2013-02-20 03:41:00,
2013-02-19 21:42:00,59.9,27.5,30.01,ESE,120,7.0,7.0,29,0.00,,,0.00,Wunderground v.1.15,2013-02-20 03:42:00,
2013-02-19 21:45:00,59.9,27.5,30.01,SE,131,7.0,8.0,29,0.00,,,0.00,Wunderground v.1.15,2013-02-20 03:45:00,
2013-02-19 21:47:00,59.8,27.4,30.01,ESE,104,7.0,8.0,29,0.00,,,0.00,Wunderground v.1.15,2013-02-20 03:47:00,
2013-02-19 21:52:00,59.8,28.3,30.01,East,85,7.0,8.0,30,0.00,,,0.00,Wunderground v.1.15,2013-02-20 03:52:00,
2013-02-19 21:54:00,59.6,28.1,30.01,ESE,112,7.0,8.0,30,0.00,,,0.00,Wunderground v.1.15,2013-02-20 03:54:00,
2013-02-19 21:55:00,59.6,28.1,30.01,East,99,7.0,9.0,30,0.00,,,0.00,Wunderground v.1.15,2013-02-20 03:55:00,
2013-02-19 21:58:00,59.6,28.1,30.01,SE,134,7.0,9.0,30,0.00,,,0.00,Wunderground v.1.15,2013-02-20 03:58:00,
2013-02-19 21:59:00,59.6,28.1,30.01,ESE,106,8.0,9.0,30,0.00,,,0.00,Wunderground v.1.15,2013-02-20 03:59:00,
2013-02-19 22:02:00,59.6,28.1,30.01,ESE,123,7.0,9.0,30,0.00,,,0.00,Wunderground v.1.15,2013-02-20 04:02:00,
2013-02-19 22:03:00,59.6,28.1,30.01,ESE,121,8.0,9.0,30,0.00,,,0.00,Wunderground v.1.15,2013-02-20 04:03:00,
2013-02-19 22:05:00,59.5,28.0,30.01,SE,124,7.0,9.0,30,0.00,,,0.00,Wunderground v.1.15,2013-02-20 04:05:00,
2013-02-19 22:09:00,59.5,28.0,30.01,ESE,119,7.0,12.0,30,0.00,,,0.00,Wunderground v.1.15,2013-02-20 04:09:00,
2013-02-19 22:11:00,59.5,28.0,30.01,East,83,7.0,12.0,30,0.00,,,0.00,Wunderground v.1.15,2013-02-20 04:11:00,
2013-02-19 22:12:00,59.5,28.0,30.01,ESE,123,8.0,8.0,30,0.00,,,0.00,Wunderground v.1.15,2013-02-20 04:12:00,
2013-02-19 22:16:00,59.3,27.8,30.01,ESE,120,9.0,12.0,30,0.00,,,0.00,Wunderground v.1.15,2013-02-20 04:16:00,
2013-02-19 22:18:00,59.3,27.8,30.01,ESE,116,9.0,12.0,30,0.00,,,0.00,Wunderground v.1.15,2013-02-20 04:18:00,
2013-02-19 22:21:00,59.3,27.8,30.01,East,88,10.0,12.0,30,0.00,,,0.00,Wunderground v.1.15,2013-02-20 04:21:00,
2013-02-19 22:22:00,59.3,27.8,30.01,South,179,9.0,10.0,30,0.00,,,0.00,Wunderground v.1.15,2013-02-20 04:22:00,
2013-02-19 22:24:00,59.3,28.6,30.01,ESE,114,9.0,11.0,31,0.00,,,0.00,Wunderground v.1.15,2013-02-20 04:24:00,
2013-02-19 22:27:00,59.2,28.5,30.01,SSE,148,8.0,11.0,31,0.00,,,0.00,Wunderground v.1.15,2013-02-20 04:27:00,
2013-02-19 22:29:00,59.2,28.5,30.01,ESE,116,8.0,11.0,31,0.00,,,0.00,Wunderground v.1.15,2013-02-20 04:29:00,
2013-02-19 22:32:00,59.2,28.5,30.01,ESE,104,8.0,8.0,31,0.00,,,0.00,Wunderground v.1.15,2013-02-20 04:32:00,
2013-02-19 22:33:00,59.0,28.4,30.01,ESE,121,8.0,8.0,31,0.00,,,0.00,Wunderground v.1.15,2013-02-20 04:33:00,
2013-02-19 22:35:00,59.0,28.4,30.01,ESE,114,7.0,8.0,31,0.00,,,0.00,Wunderground v.1.15,2013-02-20 04:35:00,
2013-02-19 22:39:00,59.0,29.2,30.01,SE,127,6.0,10.0,32,0.00,,,0.00,Wunderground v.1.15,2013-02-20 04:39:00,
2013-02-19 22:41:00,58.9,29.8,30.01,East,93,7.0,10.0,33,0.00,,,0.00,Wunderground v.1.15,2013-02-20 04:41:00,
2013-02-19 22:44:00,58.9,29.8,30.01,East,95,7.0,11.0,33,0.00,,,0.00,Wunderground v.1.15,2013-02-20 04:44:00,
2013-02-19 22:45:00,58.9,29.8,30.01,ESE,112,7.0,11.0,33,0.00,,,0.00,Wunderground v.1.15,2013-02-20 04:45:00,
2013-02-19 22:47:00,58.9,29.8,30.01,ESE,112,7.0,12.0,33,0.00,,,0.00,Wunderground v.1.15,2013-02-20 04:47:00,
2013-02-19 22:49:00,58.7,30.4,30.01,SSE,152,7.0,12.0,34,0.00,,,0.00,Wunderground v.1.15,2013-02-20 04:49:00,
2013-02-19 22:51:00,58.7,30.4,30.01,SE,136,6.0,12.0,34,0.00,,,0.00,Wunderground v.1.15,2013-02-20 04:51:00,
2013-02-19 22:53:00,58.7,30.4,30.01,ESE,102,6.0,9.0,34,0.00,,,0.00,Wunderground v.1.15,2013-02-20 04:53:00,
2013-02-19 22:56:00,58.6,31.0,30.01,SE,137,6.0,9.0,35,0.00,,,0.00,Wunderground v.1.15,2013-02-20 04:56:00,
2013-02-19 22:58:00,58.6,31.0,30.01,ESE,114,6.0,12.0,35,0.00,,,0.00,Wunderground v.1.15,2013-02-20 04:58:00,
2013-02-19 23:01:00,58.6,31.0,29.99,SE,124,7.0,7.0,35,0.00,,,0.00,Wunderground v.1.15,2013-02-20 05:01:00,
2013-02-19 23:02:00,58.4,30.8,29.99,SE,128,6.0,7.0,35,0.00,,,0.00,Wunderground v.1.15,2013-02-20 05:02:00,
2013-02-19 23:05:00,58.4,30.8,29.99,SE,130,7.0,9.0,35,0.00,,,0.00,Wunderground v.1.15,2013-02-20 05:05:00,
2013-02-19 23:06:00,58.3,31.4,29.99,ESE,113,7.0,9.0,36,0.00,,,0.00,Wunderground v.1.15,2013-02-20 05:06:00,
2013-02-19 23:07:00,58.3,32.1,29.99,SE,131,7.0,9.0,37,0.00,,,0.00,Wunderground v.1.15,2013-02-20 05:07:00,
2013-02-19 23:12:00,58.3,32.8,29.99,SE,124,9.0,11.0,38,0.00,,,0.00,Wunderground v.1.15,2013-02-20 05:12:00,
2013-02-19 23:13:00,58.3,32.8,29.99,SSE,154,9.0,11.0,38,0.00,,,0.00,Wunderground v.1.15,2013-02-20 05:13:00,
2013-02-19 23:14:00,58.3,32.8,29.99,SE,137,9.0,11.0,38,0.00,,,0.00,Wunderground v.1.15,2013-02-20 05:14:00,
2013-02-19 23:18:00,58.1,33.2,29.99,ESE,123,9.0,11.0,39,0.00,,,0.00,Wunderground v.1.15,2013-02-20 05:18:00,
2013-02-19 23:19:00,58.1,33.2,29.99,ESE,114,8.0,11.0,39,0.00,,,0.00,Wunderground v.1.15,2013-02-20 05:19:00,
2013-02-19 23:21:00,58.1,33.2,29.99,SE,124,7.0,7.0,39,0.00,,,0.00,Wunderground v.1.15,2013-02-20 05:21:00,
2013-02-19 23:24:00,58.1,33.2,29.99,ESE,120,5.0,7.0,39,0.00,,,0.00,Wunderground v.1.15,2013-02-20 05:24:00,
2013-02-19 23:26:00,58.1,32.6,29.99,SE,136,4.0,7.0,38,0.00,,,0.00,Wunderground v.1.15,2013-02-20 05:26:00,
2013-02-19 23:27:00,58.1,32.6,29.99,East,93,4.0,8.0,38,0.00,,,0.00,Wunderground v.1.15,2013-02-20 05:27:00,
2013-02-19 23:28:00,58.1,32.6,29.99,East,96,5.0,8.0,38,0.00,,,0.00,Wunderground v.1.15,2013-02-20 05:28:00,
2013-02-19 23:29:00,58.1,32.6,29.99,SE,144,5.0,8.0,38,0.00,,,0.00,Wunderground v.1.15,2013-02-20 05:29:00,
2013-02-19 23:32:00,58.1,31.3,30.02,SE,124,5.0,5.0,36,0.00,,,0.00,Wunderground v.1.15,2013-02-20 05:32:00,
2013-02-19 23:33:00,58.1,30.6,30.02,East,97,5.0,5.0,35,0.00,,,0.00,Wunderground v.1.15,2013-02-20 05:33:00,
2013-02-19 23:35:00,58.1,30.6,30.02,SE,138,6.0,8.0,35,0.00,,,0.00,Wunderground v.1.15,2013-02-20 05:35:00,
2013-02-19 23:37:00,58.1,29.8,30.02,SE,140,6.0,8.0,34,0.00,,,0.00,Wunderground v.1.15,2013-02-20 05:37:00,
2013-02-19 23:38:00,58.1,29.8,30.02,ESE,116,6.0,8.0,34,0.00,,,0.00,Wunderground v.1.15,2013-02-20 05:38:00,
2013-02-19 23:42:00,58.1,29.8,30.02,SE,141,6.0,6.0,34,0.00,,,0.00,Wunderground v.1.15,2013-02-20 05:42:00,
2013-02-19 23:43:00,58.1,29.8,30.02,SE,131,6.0,6.0,34,0.00,,,0.00,Wunderground v.1.15,2013-02-20 05:43:00,
2013-02-19 23:44:00,58.0,29.8,30.02,ESE,114,6.0,6.0,34,0.00,,,0.00,Wunderground v.1.15,2013-02-20 05:44:00,
2013-02-19 23:45:00,58.0,29.8,30.02,SE,130,5.0,6.0,34,0.00,,,0.00,Wunderground v.1.15,2013-02-20 05:45:00,
2013-02-19 23:49:00,58.0,28.3,30.04,SE,133,5.0,13.0,32,0.00,,,0.00,Wunderground v.1.15,2013-02-20 05:49:00,
2013-02-19 23:51:00,58.0,27.5,30.04,ESE,116,5.0,5.0,31,0.00,,,0.00,Wunderground v.1.15,2013-02-20 05:51:00,
2013-02-19 23:53:00,58.0,27.5,30.04,ESE,120,5.0,5.0,31,0.00,,,0.00,Wunderground v.1.15,2013-02-20 05:53:00,
2013-02-19 23:55:00,58.0,27.5,30.04,ESE,112,5.0,5.0,31,0.00,,,0.00,Wunderground v.1.15,2013-02-20 05:55:00,
2013-02-19 23:56:00,58.0,28.3,30.04,ESE,113,5.0,5.0,32,0.00,,,0.00,Wunderground v.1.15,2013-02-20 05:56:00,
2013-02-19 23:59:00,58.0,26.7,30.04,ESE,104,4.0,11.0,30,0.00,,,0.00,Wunderground v.1.15,2013-02-20 05:59:00,